| time (UTC) | temp F | wind direction | speed MPH | gust MPH | rain 1hr in | rain 24hr in | rain mn in | humidity % | barometer mb |
| 20260906120448 | 82 | 55 | 0.0 | 2.0 | 0.00 | 0.00 | 0.00 | 63 | 1019.3 |
| 20260906120318 | 81 | 177 | 0.0 | 2.0 | 0.00 | 0.00 | 0.00 | 63 | 1019.3 |
| 20260906120215 | 81 | 177 | 1.0 | 3.0 | 0.00 | 0.00 | 0.00 | 63 | 1019.4 |
| 20260906120024 | 81 | 76 | 1.0 | 3.0 | 0.00 | 0.00 | 0.00 | 63 | 1019.4 |
| 20260906115505 | 80 | 147 | 1.0 | 3.0 | 0.00 | 0.00 | 0.00 | 67 | 1019.3 |
| 20260906115017 | 80 | 259 | 0.0 | 3.0 | 0.00 | 0.00 | 0.00 | 70 | 1019.4 |
| 20260906114920 | 80 | 259 | 1.0 | 3.0 | 0.00 | 0.00 | 0.00 | 70 | 1019.4 |
| 20260906114847 | 80 | 259 | 0.0 | 3.0 | 0.00 | 0.00 | 0.00 | 70 | 1019.3 |
| 20260906114342 | 80 | 255 | 1.0 | 3.0 | 0.00 | 0.00 | 0.00 | 70 | 1019.4 |
| 20260906114119 | 80 | 255 | 1.0 | 3.0 | 0.00 | 0.00 | 0.00 | 71 | 1019.4 |
| 20260906113955 | 80 | 96 | 0.0 | 1.0 | 0.00 | 0.00 | 0.00 | 72 | 1019.3 |
| 20260906113908 | 80 | 96 | 0.0 | 2.0 | 0.00 | 0.00 | 0.00 | 72 | 1019.3 |
| 20260906113751 | 79 | 96 | 0.0 | 3.0 | 0.00 | 0.00 | 0.00 | 72 | 1019.4 |
| 20260906113647 | 79 | 155 | 0.0 | 3.0 | 0.00 | 0.00 | 0.00 | 72 | 1019.4 |
| 20260906113511 | 79 | 155 | 0.0 | 3.0 | 0.00 | 0.00 | 0.00 | 72 | 1019.4 |
| 20260906113402 | 79 | 53 | 0.0 | 3.0 | 0.00 | 0.00 | 0.00 | 72 | 1019.3 |
| 20260906113244 | 79 | 53 | 1.0 | 3.0 | 0.00 | 0.00 | 0.00 | 72 | 1019.2 |
| 20260906112547 | 79 | 56 | 0.0 | 1.0 | 0.00 | 0.00 | 0.00 | 72 | 1019.2 |
| 20260906112432 | 79 | 56 | 0.0 | 2.0 | 0.00 | 0.00 | 0.00 | 72 | 1019.3 |
| 20260906112306 | 78 | 56 | 0.0 | 2.0 | 0.00 | 0.00 | 0.00 | 72 | 1019.3 |
| 20260906112159 | 78 | 56 | 0.0 | 2.0 | 0.00 | 0.00 | 0.00 | 73 | 1019.3 |
| 20260906112107 | 78 | 56 | 0.0 | 2.0 | 0.00 | 0.00 | 0.00 | 73 | 1019.3 |
| 20260906111723 | 78 | 56 | 1.0 | 3.0 | 0.00 | 0.00 | 0.00 | 74 | 1019.4 |
| 20260906111555 | 78 | 59 | 0.0 | 3.0 | 0.00 | 0.00 | 0.00 | 74 | 1019.4 |
| 20260906111443 | 78 | 91 | 1.0 | 3.0 | 0.00 | 0.00 | 0.00 | 75 | 1019.4 |
| 20260906111004 | 78 | 160 | 2.0 | 3.0 | 0.00 | 0.00 | 0.00 | 76 | 1019.7 |
| 20260906110911 | 78 | 157 | 0.0 | 3.0 | 0.00 | 0.00 | 0.00 | 76 | 1019.6 |
| 20260906110744 | 78 | 194 | 0.0 | 2.0 | 0.00 | 0.00 | 0.00 | 75 | 1019.5 |
| 20260906110414 | 78 | 194 | 0.0 | 4.0 | 0.00 | 0.00 | 0.00 | 75 | 1019.3 |
| 20260906110214 | 78 | 194 | 0.0 | 4.0 | 0.00 | 0.00 | 0.00 | 76 | 1019.1 |
| 20260906105745 | 78 | 230 | 0.0 | 4.0 | 0.00 | 0.00 | 0.00 | 77 | 1019.4 |
| 20260906105602 | 78 | 163 | 0.0 | 4.0 | 0.00 | 0.00 | 0.00 | 76 | 1019.3 |
| 20260906105036 | 78 | 90 | 1.0 | 4.0 | 0.00 | 0.00 | 0.00 | 76 | 1018.7 |
| 20260906104809 | 78 | 311 | 1.0 | 2.0 | 0.00 | 0.00 | 0.00 | 77 | 1018.7 |
| 20260906104659 | 77 | 311 | 0.0 | 2.0 | 0.00 | 0.00 | 0.00 | 77 | 1019.0 |
| 20260906104554 | 77 | 288 | 0.0 | 3.0 | 0.00 | 0.00 | 0.00 | 77 | 1019.1 |
| 20260906104443 | 77 | 288 | 0.0 | 3.0 | 0.00 | 0.00 | 0.00 | 77 | 1019.2 |
| 20260906104351 | 77 | 288 | 0.0 | 3.0 | 0.00 | 0.00 | 0.00 | 77 | 1019.2 |
| 20260906104219 | 77 | 288 | 0.0 | 3.0 | 0.00 | 0.00 | 0.00 | 77 | 1019.4 |
| 20260906104019 | 77 | 288 | 1.0 | 3.0 | 0.00 | 0.00 | 0.00 | 77 | 1019.4 |
| 20260906103901 | 77 | 288 | 1.0 | 3.0 | 0.00 | 0.00 | 0.00 | 78 | 1019.6 |
| 20260906103751 | 77 | 310 | 0.0 | 0.0 | 0.00 | 0.00 | 0.00 | 78 | 1019.5 |
| 20260906103726 | 77 | 310 | 0.0 | 0.0 | 0.00 | 0.00 | 0.00 | 78 | 1019.4 |
| 20260906103535 | 77 | 310 | 0.0 | 1.0 | 0.00 | 0.00 | 0.00 | 78 | 1019.5 |
| 20260906103422 | 77 | 310 | 0.0 | 2.0 | 0.00 | 0.00 | 0.00 | 79 | 1019.5 |
| 20260906103238 | 77 | 310 | 0.0 | 2.0 | 0.00 | 0.00 | 0.00 | 79 | 1019.7 |
| 20260906103142 | 77 | 310 | 0.0 | 2.0 | 0.00 | 0.00 | 0.00 | 79 | 1019.8 |
| 20260906103040 | 77 | 310 | 0.0 | 2.0 | 0.00 | 0.00 | 0.00 | 78 | 1019.7 |
| 20260906103018 | 77 | 310 | 0.0 | 2.0 | 0.00 | 0.00 | 0.00 | 78 | 1019.6 |
| 20260906102901 | 77 | 310 | 1.0 | 2.0 | 0.00 | 0.00 | 0.00 | 79 | 1019.5 |
| 20260906102731 | 76 | 310 | 1.0 | 2.0 | 0.00 | 0.00 | 0.00 | 79 | 1019.3 |
| 20260906102040 | 76 | 293 | 0.0 | 4.0 | 0.00 | 0.00 | 0.00 | 80 | 1019.3 |
| 20260906101932 | 76 | 293 | 0.0 | 4.0 | 0.00 | 0.00 | 0.00 | 79 | 1019.5 |
| 20260906101911 | 76 | 293 | 0.0 | 4.0 | 0.00 | 0.00 | 0.00 | 79 | 1019.4 |
| 20260906101421 | 76 | 293 | 2.0 | 4.0 | 0.00 | 0.00 | 0.00 | 79 | 1019.6 |
| 20260906101324 | 76 | 293 | 2.0 | 4.0 | 0.00 | 0.00 | 0.00 | 79 | 1019.7 |
| 20260906101144 | 76 | 279 | 1.0 | 3.0 | 0.00 | 0.00 | 0.00 | 79 | 1019.9 |
| 20260906101015 | 76 | 281 | 0.0 | 3.0 | 0.00 | 0.00 | 0.00 | 79 | 1019.9 |
| 20260906100950 | 76 | 281 | 0.0 | 3.0 | 0.00 | 0.00 | 0.00 | 79 | 1020.0 |
| 20260906100531 | 76 | 281 | 1.0 | 3.0 | 0.00 | 0.00 | 0.00 | 79 | 1019.9 |
| 20260906100509 | 76 | 281 | 1.0 | 3.0 | 0.00 | 0.00 | 0.00 | 79 | 1019.8 |
| 20260906100405 | 76 | 281 | 0.0 | 3.0 | 0.00 | 0.00 | 0.00 | 80 | 1019.9 |
| 20260906100303 | 76 | 281 | 0.0 | 2.0 | 0.00 | 0.00 | 0.00 | 80 | 1020.1 |
| 20260906100159 | 75 | 281 | 0.0 | 2.0 | 0.00 | 0.00 | 0.00 | 80 | 1019.9 |
| 20260906095821 | 75 | 281 | 1.0 | 2.0 | 0.00 | 0.00 | 0.00 | 80 | 1019.7 |
| 20260906095636 | 75 | 281 | 0.0 | 2.0 | 0.00 | 0.00 | 0.00 | 79 | 1019.6 |
| 20260906095309 | 75 | 281 | 0.0 | 2.0 | 0.00 | 0.00 | 0.00 | 79 | 1019.6 |
| 20260906095212 | 75 | 281 | 1.0 | 3.0 | 0.00 | 0.00 | 0.00 | 79 | 1019.7 |
| 20260906094826 | 75 | 281 | 1.0 | 3.0 | 0.00 | 0.00 | 0.00 | 80 | 1019.8 |
| 20260906094631 | 75 | 281 | 0.0 | 3.0 | 0.00 | 0.00 | 0.00 | 80 | 1019.9 |
| 20260906094534 | 75 | 281 | 0.0 | 3.0 | 0.00 | 0.00 | 0.00 | 80 | 1019.9 |
| 20260906094518 | 75 | 281 | 1.0 | 3.0 | 0.00 | 0.00 | 0.00 | 80 | 1019.8 |
| 20260906094430 | 75 | 281 | 1.0 | 3.0 | 0.00 | 0.00 | 0.00 | 80 | 1019.7 |
| 20260906094300 | 74 | 281 | 0.0 | 2.0 | 0.00 | 0.00 | 0.00 | 81 | 1019.8 |
| 20260906094144 | 74 | 257 | 0.0 | 2.0 | 0.00 | 0.00 | 0.00 | 81 | 1019.9 |
| 20260906094135 | 74 | 257 | 0.0 | 2.0 | 0.00 | 0.00 | 0.00 | 81 | 1019.9 |
| 20260906094020 | 74 | 257 | 0.0 | 3.0 | 0.00 | 0.00 | 0.00 | 80 | 1019.8 |
| 20260906093841 | 74 | 257 | 0.0 | 3.0 | 0.00 | 0.00 | 0.00 | 81 | 1020.0 |
| 20260906093751 | 74 | 159 | 0.0 | 3.0 | 0.00 | 0.00 | 0.00 | 81 | 1020.0 |
| 20260906093636 | 74 | 57 | 0.0 | 3.0 | 0.00 | 0.00 | 0.00 | 81 | 1019.7 |
| 20260906093524 | 74 | 57 | 1.0 | 3.0 | 0.00 | 0.00 | 0.00 | 80 | 1019.6 |
| 20260906093104 | 74 | 88 | 2.0 | 3.0 | 0.00 | 0.00 | 0.00 | 81 | 1019.9 |
| 20260906092855 | 74 | 180 | 1.0 | 3.0 | 0.00 | 0.00 | 0.00 | 80 | 1019.7 |
| 20260906092732 | 74 | 53 | 2.0 | 3.0 | 0.00 | 0.00 | 0.00 | 80 | 1019.4 |
| 20260906092558 | 74 | 53 | 0.0 | 3.0 | 0.00 | 0.00 | 0.00 | 81 | 1019.6 |
| 20260906092511 | 74 | 244 | 0.0 | 0.0 | 0.00 | 0.00 | 0.00 | 81 | 1019.9 |
| 20260906092119 | 74 | 244 | 0.0 | 4.0 | 0.00 | 0.00 | 0.00 | 80 | 1020.0 |
| 20260906091958 | 74 | 244 | 0.0 | 4.0 | 0.00 | 0.00 | 0.00 | 81 | 1019.9 |
| 20260906091628 | 74 | 244 | 0.0 | 4.0 | 0.00 | 0.00 | 0.00 | 80 | 1019.9 |
| 20260906091217 | 74 | 244 | 2.0 | 4.0 | 0.00 | 0.00 | 0.00 | 80 | 1020.0 |
| 20260906091125 | 73 | 244 | 1.0 | 4.0 | 0.00 | 0.00 | 0.00 | 80 | 1020.0 |
| 20260906090950 | 73 | 78 | 0.0 | 3.0 | 0.00 | 0.00 | 0.00 | 80 | 1019.9 |
| 20260906090842 | 73 | 78 | 1.0 | 3.0 | 0.00 | 0.00 | 0.00 | 81 | 1019.7 |
| 20260906090821 | 73 | 78 | 1.0 | 3.0 | 0.00 | 0.00 | 0.00 | 81 | 1019.8 |
| 20260906090313 | 73 | 241 | 1.0 | 4.0 | 0.00 | 0.00 | 0.00 | 80 | 1020.0 |
| 20260906090243 | 73 | 241 | 1.0 | 4.0 | 0.00 | 0.00 | 0.00 | 80 | 1019.9 |
| 20260906090139 | 73 | 56 | 1.0 | 4.0 | 0.00 | 0.00 | 0.00 | 80 | 1019.7 |
| 20260906090010 | 73 | 84 | 2.0 | 4.0 | 0.00 | 0.00 | 0.00 | 80 | 1019.4 |
| 20260906085852 | 73 | 53 | 3.0 | 5.0 | 0.00 | 0.00 | 0.00 | 80 | 1019.4 |
| 20260906085827 | 73 | 53 | 3.0 | 5.0 | 0.00 | 0.00 | 0.00 | 80 | 1019.3 |
| 20260906085255 | 73 | 82 | 2.0 | 5.0 | 0.00 | 0.00 | 0.00 | 81 | 1019.3 |
| 20260906085227 | 73 | 57 | 2.0 | 5.0 | 0.00 | 0.00 | 0.00 | 81 | 1019.3 |
| 20260906084349 | 72 | 71 | 2.0 | 4.0 | 0.00 | 0.00 | 0.00 | 81 | 1019.3 |
| 20260906084320 | 72 | 68 | 2.0 | 4.0 | 0.00 | 0.00 | 0.00 | 81 | 1019.3 |
| 20260906084044 | 72 | 57 | 1.0 | 3.0 | 0.00 | 0.00 | 0.00 | 81 | 1019.4 |
| 20260906083909 | 72 | 57 | 2.0 | 3.0 | 0.00 | 0.00 | 0.00 | 81 | 1019.6 |
| 20260906083838 | 72 | 57 | 1.0 | 3.0 | 0.00 | 0.00 | 0.00 | 81 | 1019.4 |
| 20260906083256 | 72 | 57 | 1.0 | 3.0 | 0.00 | 0.00 | 0.00 | 81 | 1019.4 |
| 20260906082906 | 72 | 58 | 0.0 | 3.0 | 0.00 | 0.00 | 0.00 | 81 | 1019.4 |
| 20260906082717 | 72 | 87 | 0.0 | 2.0 | 0.00 | 0.00 | 0.00 | 81 | 1019.6 |
| 20260906082605 | 72 | 87 | 1.0 | 3.0 | 0.00 | 0.00 | 0.00 | 81 | 1019.6 |
| 20260906082528 | 72 | 87 | 1.0 | 3.0 | 0.00 | 0.00 | 0.00 | 81 | 1019.7 |
| 20260906082345 | 72 | 69 | 0.0 | 3.0 | 0.00 | 0.00 | 0.00 | 81 | 1019.7 |
| 20260906082235 | 72 | 73 | 0.0 | 3.0 | 0.00 | 0.00 | 0.00 | 81 | 1019.9 |
| 20260906082128 | 72 | 73 | 0.0 | 3.0 | 0.00 | 0.00 | 0.00 | 81 | 1019.9 |
| 20260906081927 | 71 | 73 | 1.0 | 3.0 | 0.00 | 0.00 | 0.00 | 80 | 1019.7 |
| 20260906081807 | 71 | 85 | 2.0 | 3.0 | 0.00 | 0.00 | 0.00 | 81 | 1019.5 |
| 20260906081722 | 71 | 85 | 1.0 | 3.0 | 0.00 | 0.00 | 0.00 | 81 | 1019.4 |
| 20260906081528 | 71 | 57 | 0.0 | 3.0 | 0.00 | 0.00 | 0.00 | 81 | 1019.4 |
| 20260906081419 | 71 | 145 | 0.0 | 0.0 | 0.00 | 0.00 | 0.00 | 81 | 1019.5 |
| 20260906081304 | 71 | 145 | 0.0 | 0.0 | 0.00 | 0.00 | 0.00 | 81 | 1019.6 |
| 20260906081211 | 71 | 145 | 0.0 | 0.0 | 0.00 | 0.00 | 0.00 | 81 | 1019.7 |
| 20260906080824 | 71 | 145 | 0.0 | 0.0 | 0.00 | 0.00 | 0.00 | 82 | 1019.7 |
| 20260906075933 | 71 | 145 | 0.0 | 0.0 | 0.00 | 0.00 | 0.00 | 81 | 1019.8 |
| 20260906075734 | 71 | 145 | 0.0 | 0.0 | 0.00 | 0.00 | 0.00 | 82 | 1019.7 |
| 20260906075638 | 71 | 145 | 0.0 | 0.0 | 0.00 | 0.00 | 0.00 | 82 | 1019.7 |
| 20260906075335 | 71 | 145 | 0.0 | 0.0 | 0.00 | 0.00 | 0.00 | 82 | 1019.8 |
| 20260906075200 | 81 | 73 | 3.0 | 5.0 | 0.00 | 0.00 | 0.00 | 49 | 1019.8 |
| 20260906075132 | 82 | 82 | 2.0 | 4.0 | 0.00 | 0.00 | 0.00 | 49 | 1019.9 |
| 20260906075045 | 71 | 145 | 0.0 | 0.0 | 0.00 | 0.00 | 0.00 | 82 | 1019.7 |
| 20260906074917 | 71 | 145 | 0.0 | 0.0 | 0.00 | 0.00 | 0.00 | 82 | 1019.6 |
| 20260906074725 | 71 | 145 | 0.0 | 0.0 | 0.00 | 0.00 | 0.00 | 82 | 1019.6 |
| 20260906074622 | 71 | 145 | 0.0 | 0.0 | 0.00 | 0.00 | 0.00 | 82 | 1019.6 |
| 20260906074558 | 71 | 145 | 0.0 | 0.0 | 0.00 | 0.00 | 0.00 | 82 | 1019.6 |
| 20260906074435 | 71 | 145 | 0.0 | 0.0 | 0.00 | 0.00 | 0.00 | 82 | 1019.6 |
| 20260906074340 | 71 | 145 | 0.0 | 0.0 | 0.00 | 0.00 | 0.00 | 82 | 1019.7 |
| 20260906074250 | 70 | 145 | 0.0 | 0.0 | 0.00 | 0.00 | 0.00 | 82 | 1019.7 |
| 20260906074237 | 71 | 145 | 0.0 | 0.0 | 0.00 | 0.00 | 0.00 | 82 | 1019.7 |
| 20260906074033 | 70 | 145 | 0.0 | 0.0 | 0.00 | 0.00 | 0.00 | 82 | 1019.8 |
| 20260906073942 | 70 | 145 | 0.0 | 0.0 | 0.00 | 0.00 | 0.00 | 82 | 1019.7 |
| 20260906073927 | 70 | 145 | 0.0 | 0.0 | 0.00 | 0.00 | 0.00 | 82 | 1019.7 |
| 20260906073547 | 70 | 145 | 0.0 | 0.0 | 0.00 | 0.00 | 0.00 | 82 | 1019.7 |
| 20260906073453 | 70 | 145 | 0.0 | 0.0 | 0.00 | 0.00 | 0.00 | 82 | 1019.7 |
| 20260906073410 | 70 | 145 | 0.0 | 0.0 | 0.00 | 0.00 | 0.00 | 82 | 1019.6 |
| 20260906073320 | 70 | 145 | 0.0 | 0.0 | 0.00 | 0.00 | 0.00 | 82 | 1019.6 |
| 20260906073253 | 70 | 145 | 0.0 | 0.0 | 0.00 | 0.00 | 0.00 | 82 | 1019.6 |
| 20260906073214 | 70 | 145 | 0.0 | 2.0 | 0.00 | 0.00 | 0.00 | 82 | 1019.6 |
| 20260906073123 | 70 | 145 | 0.0 | 3.0 | 0.00 | 0.00 | 0.00 | 82 | 1019.6 |
| 20260906072824 | 70 | 145 | 0.0 | 3.0 | 0.00 | 0.00 | 0.00 | 82 | 1019.7 |
| 20260906072705 | 70 | 145 | 0.0 | 4.0 | 0.00 | 0.00 | 0.00 | 83 | 1019.6 |
| 20260906072551 | 70 | 145 | 1.0 | 4.0 | 0.00 | 0.00 | 0.00 | 83 | 1019.6 |
| 20260906071800 | 70 | 74 | 2.0 | 4.0 | 0.00 | 0.00 | 0.00 | 83 | 1019.5 |
| 20260906071645 | 70 | 76 | 2.0 | 4.0 | 0.00 | 0.00 | 0.00 | 83 | 1019.4 |
| 20260906071620 | 70 | 91 | 2.0 | 4.0 | 0.00 | 0.00 | 0.00 | 83 | 1019.4 |
| 20260906071435 | 70 | 104 | 1.0 | 4.0 | 0.00 | 0.00 | 0.00 | 83 | 1019.6 |
| 20260906071241 | 69 | 124 | 1.0 | 4.0 | 0.00 | 0.00 | 0.00 | 84 | 1019.5 |
| 20260906071214 | 70 | 151 | 1.0 | 4.0 | 0.00 | 0.00 | 0.00 | 84 | 1019.6 |
| 20260906071112 | 69 | 124 | 2.0 | 4.0 | 0.00 | 0.00 | 0.00 | 84 | 1019.6 |
| 20260906070929 | 69 | 136 | 2.0 | 4.0 | 0.00 | 0.00 | 0.00 | 84 | 1019.6 |
| 20260906070821 | 69 | 144 | 2.0 | 3.0 | 0.00 | 0.00 | 0.00 | 84 | 1019.5 |
| 20260906070746 | 69 | 111 | 2.0 | 3.0 | 0.00 | 0.00 | 0.00 | 84 | 1019.5 |
| 20260906070608 | 69 | 116 | 1.0 | 3.0 | 0.00 | 0.00 | 0.00 | 84 | 1019.5 |
| 20260906070429 | 69 | 124 | 2.0 | 3.0 | 0.00 | 0.00 | 0.00 | 84 | 1019.5 |
| 20260906065631 | 69 | 103 | 2.0 | 3.0 | 0.00 | 0.00 | 0.00 | 84 | 1019.4 |
| 20260906065532 | 69 | 127 | 2.0 | 3.0 | 0.00 | 0.00 | 0.00 | 85 | 1019.4 |
| 20260906064727 | 69 | 51 | 0.0 | 3.0 | 0.00 | 0.00 | 0.00 | 85 | 1019.4 |
| 20260906064546 | 69 | 51 | 0.0 | 3.0 | 0.00 | 0.00 | 0.00 | 85 | 1019.4 |
| 20260906064424 | 69 | 51 | 2.0 | 3.0 | 0.00 | 0.00 | 0.00 | 85 | 1019.4 |
| 20260906064337 | 69 | 51 | 2.0 | 3.0 | 0.00 | 0.00 | 0.00 | 85 | 1019.5 |
| 20260906063530 | 69 | 83 | 0.0 | 2.0 | 0.00 | 0.00 | 0.00 | 85 | 1019.4 |
| 20260906063408 | 69 | 83 | 0.0 | 2.0 | 0.00 | 0.00 | 0.00 | 84 | 1019.5 |
| 20260906063317 | 69 | 83 | 0.0 | 2.0 | 0.00 | 0.00 | 0.00 | 84 | 1019.6 |
| 20260906063254 | 69 | 83 | 0.0 | 2.0 | 0.00 | 0.00 | 0.00 | 84 | 1019.6 |
| 20260906063226 | 69 | 83 | 0.0 | 2.0 | 0.00 | 0.00 | 0.00 | 84 | 1019.6 |
| 20260906062552 | 69 | 83 | 0.0 | 2.0 | 0.00 | 0.00 | 0.00 | 85 | 1019.6 |
| 20260906062358 | 69 | 84 | 0.0 | 0.0 | 0.00 | 0.00 | 0.00 | 85 | 1019.6 |
| 20260906062300 | 69 | 84 | 0.0 | 0.0 | 0.00 | 0.00 | 0.00 | 85 | 1019.6 |
| 20260906062231 | 69 | 84 | 0.0 | 2.0 | 0.00 | 0.00 | 0.00 | 85 | 1019.6 |
| 20260906062216 | 69 | 84 | 0.0 | 2.0 | 0.00 | 0.00 | 0.00 | 85 | 1019.6 |
| 20260906062104 | 69 | 84 | 0.0 | 2.0 | 0.00 | 0.00 | 0.00 | 85 | 1019.6 |
| 20260906061744 | 69 | 84 | 0.0 | 2.0 | 0.00 | 0.00 | 0.00 | 85 | 1019.5 |
| 20260906061621 | 69 | 84 | 0.0 | 2.0 | 0.00 | 0.00 | 0.00 | 85 | 1019.5 |
| 20260906061513 | 69 | 84 | 0.0 | 2.0 | 0.00 | 0.00 | 0.00 | 85 | 1019.4 |
| 20260906061436 | 69 | 63 | 0.0 | 2.0 | 0.00 | 0.00 | 0.00 | 85 | 1019.4 |
| 20260906061010 | 69 | 63 | 0.0 | 2.0 | 0.00 | 0.00 | 0.00 | 84 | 1019.4 |
| 20260906060641 | 69 | 63 | 0.0 | 2.0 | 0.00 | 0.00 | 0.00 | 84 | 1019.4 |
| 20260906060424 | 69 | 63 | 1.0 | 2.0 | 0.00 | 0.00 | 0.00 | 84 | 1019.4 |
| 20260906060258 | 69 | 63 | 1.0 | 2.0 | 0.00 | 0.00 | 0.00 | 83 | 1019.3 |
| 20260906060212 | 69 | 63 | 1.0 | 2.0 | 0.00 | 0.00 | 0.00 | 83 | 1019.3 |
| 20260906055332 | 69 | 162 | 0.0 | 0.0 | 0.00 | 0.00 | 0.00 | 83 | 1019.4 |
| 20260906055237 | 69 | 162 | 0.0 | 0.0 | 0.00 | 0.00 | 0.00 | 83 | 1019.4 |
| 20260906055002 | 69 | 162 | 0.0 | 0.0 | 0.00 | 0.00 | 0.00 | 83 | 1019.4 |
| 20260906054920 | 69 | 162 | 0.0 | 0.0 | 0.00 | 0.00 | 0.00 | 83 | 1019.3 |
| 20260906054853 | 69 | 162 | 0.0 | 0.0 | 0.00 | 0.00 | 0.00 | 83 | 1019.4 |
| 20260906054723 | 69 | 162 | 0.0 | 0.0 | 0.00 | 0.00 | 0.00 | 83 | 1019.4 |
| 20260906054625 | 69 | 162 | 0.0 | 0.0 | 0.00 | 0.00 | 0.00 | 83 | 1019.4 |
| 20260906054543 | 69 | 162 | 0.0 | 0.0 | 0.00 | 0.00 | 0.00 | 83 | 1019.4 |
| 20260906054346 | 69 | 162 | 0.0 | 0.0 | 0.00 | 0.00 | 0.00 | 83 | 1019.4 |
| 20260906054322 | 69 | 162 | 0.0 | 0.0 | 0.00 | 0.00 | 0.00 | 83 | 1019.3 |
| 20260906053638 | 69 | 162 | 0.0 | 0.0 | 0.00 | 0.00 | 0.00 | 83 | 1019.5 |
| 20260906053337 | 69 | 162 | 0.0 | 0.0 | 0.00 | 0.00 | 0.00 | 83 | 1019.4 |
| 20260906052833 | 69 | 162 | 0.0 | 0.0 | 0.00 | 0.00 | 0.00 | 83 | 1019.5 |
| 20260906052747 | 69 | 162 | 0.0 | 0.0 | 0.00 | 0.00 | 0.00 | 83 | 1019.5 |
| 20260906052550 | 69 | 162 | 0.0 | 0.0 | 0.00 | 0.00 | 0.00 | 83 | 1019.5 |
| 20260906052417 | 82 | 61 | 4.0 | 7.0 | 0.00 | 0.00 | 0.00 | 48 | 1019.8 |
| 20260906052342 | 69 | 162 | 0.0 | 0.0 | 0.00 | 0.00 | 0.00 | 83 | 1019.6 |
| 20260906052327 | 82 | 59 | 3.0 | 5.0 | 0.00 | 0.00 | 0.00 | 48 | 1019.6 |
| 20260906052300 | 82 | 53 | 2.0 | 4.0 | 0.00 | 0.00 | 0.00 | 48 | 1019.7 |
| 20260906052212 | 69 | 162 | 0.0 | 0.0 | 0.00 | 0.00 | 0.00 | 83 | 1019.5 |
| 20260906051938 | 69 | 162 | 0.0 | 0.0 | 0.00 | 0.00 | 0.00 | 83 | 1019.5 |
| 20260906051902 | 69 | 162 | 0.0 | 0.0 | 0.00 | 0.00 | 0.00 | 83 | 1019.4 |
| 20260906051838 | 69 | 162 | 0.0 | 0.0 | 0.00 | 0.00 | 0.00 | 83 | 1019.5 |
| 20260906051643 | 69 | 162 | 0.0 | 0.0 | 0.00 | 0.00 | 0.00 | 83 | 1019.5 |
| 20260906051530 | 69 | 162 | 0.0 | 0.0 | 0.00 | 0.00 | 0.00 | 83 | 1019.5 |
| 20260906051431 | 69 | 162 | 0.0 | 0.0 | 0.00 | 0.00 | 0.00 | 83 | 1019.6 |
| 20260906051022 | 69 | 162 | 0.0 | 0.0 | 0.00 | 0.00 | 0.00 | 83 | 1019.5 |
| 20260906050956 | 69 | 162 | 0.0 | 0.0 | 0.00 | 0.00 | 0.00 | 83 | 1019.4 |
| 20260906050344 | 69 | 162 | 0.0 | 1.0 | 0.00 | 0.00 | 0.00 | 83 | 1019.3 |
| 20260906050216 | 69 | 162 | 0.0 | 1.0 | 0.00 | 0.00 | 0.00 | 83 | 1019.3 |
| 20260906045937 | 69 | 162 | 0.0 | 1.0 | 0.00 | 0.00 | 0.00 | 83 | 1019.3 |
| 20260906045847 | 69 | 162 | 0.0 | 1.0 | 0.00 | 0.00 | 0.00 | 83 | 1019.3 |
| 20260906045810 | 69 | 162 | 0.0 | 1.0 | 0.00 | 0.00 | 0.00 | 83 | 1019.4 |
| 20260906045620 | 69 | 162 | 0.0 | 0.0 | 0.00 | 0.00 | 0.00 | 83 | 1019.4 |
| 20260906045458 | 69 | 162 | 0.0 | 0.0 | 0.00 | 0.00 | 0.00 | 83 | 1019.3 |
| 20260906044940 | 69 | 162 | 0.0 | 0.0 | 0.00 | 0.00 | 0.00 | 83 | 1019.3 |
| 20260906044843 | 69 | 162 | 0.0 | 0.0 | 0.00 | 0.00 | 0.00 | 82 | 1019.3 |
| 20260906044815 | 69 | 162 | 0.0 | 0.0 | 0.00 | 0.00 | 0.00 | 82 | 1019.4 |
| 20260906044636 | 69 | 162 | 0.0 | 0.0 | 0.00 | 0.00 | 0.00 | 82 | 1019.4 |
| 20260906044530 | 69 | 162 | 0.0 | 0.0 | 0.00 | 0.00 | 0.00 | 82 | 1019.3 |
| 20260906044449 | 69 | 162 | 0.0 | 0.0 | 0.00 | 0.00 | 0.00 | 82 | 1019.4 |
| 20260906044229 | 69 | 162 | 0.0 | 0.0 | 0.00 | 0.00 | 0.00 | 82 | 1019.3 |
| 20260906043935 | 69 | 162 | 0.0 | 0.0 | 0.00 | 0.00 | 0.00 | 82 | 1019.3 |
| 20260906043810 | 69 | 162 | 0.0 | 1.0 | 0.00 | 0.00 | 0.00 | 82 | 1019.3 |
| 20260906043659 | 70 | 162 | 0.0 | 1.0 | 0.00 | 0.00 | 0.00 | 82 | 1019.3 |
| 20260906043620 | 70 | 162 | 0.0 | 2.0 | 0.00 | 0.00 | 0.00 | 82 | 1019.3 |
| 20260906043424 | 70 | 162 | 0.0 | 2.0 | 0.00 | 0.00 | 0.00 | 82 | 1019.5 |
| 20260906043352 | 70 | 162 | 0.0 | 2.0 | 0.00 | 0.00 | 0.00 | 81 | 1019.3 |
| 20260906043319 | 70 | 162 | 0.0 | 2.0 | 0.00 | 0.00 | 0.00 | 81 | 1019.5 |
| 20260906043202 | 70 | 162 | 0.0 | 2.0 | 0.00 | 0.00 | 0.00 | 81 | 1019.5 |
| 20260906042821 | 70 | 162 | 1.0 | 2.0 | 0.00 | 0.00 | 0.00 | 80 | 1019.4 |
| 20260906042720 | 70 | 162 | 1.0 | 2.0 | 0.00 | 0.00 | 0.00 | 80 | 1019.4 |
| 20260906042541 | 70 | 162 | 1.0 | 3.0 | 0.00 | 0.00 | 0.00 | 79 | 1019.4 |
| 20260906042500 | 70 | 162 | 1.0 | 3.0 | 0.00 | 0.00 | 0.00 | 79 | 1019.4 |
| 20260906042058 | 70 | 154 | 0.0 | 3.0 | 0.00 | 0.00 | 0.00 | 79 | 1019.3 |
| 20260906041710 | 70 | 109 | 1.0 | 3.0 | 0.00 | 0.00 | 0.00 | 79 | 1019.1 |
| 20260906041600 | 70 | 109 | 2.0 | 3.0 | 0.00 | 0.00 | 0.00 | 79 | 1019.1 |
| 20260906041344 | 70 | 136 | 2.0 | 3.0 | 0.00 | 0.00 | 0.00 | 79 | 1019.1 |
| 20260906041234 | 70 | 147 | 2.0 | 3.0 | 0.00 | 0.00 | 0.00 | 79 | 1019.2 |
| 20260906041200 | 70 | 150 | 2.0 | 3.0 | 0.00 | 0.00 | 0.00 | 79 | 1019.1 |
| 20260906040618 | 70 | 53 | 1.0 | 2.0 | 0.00 | 0.00 | 0.00 | 79 | 1019.1 |
| 20260906040552 | 70 | 53 | 0.0 | 2.0 | 0.00 | 0.00 | 0.00 | 79 | 1019.1 |
| 20260906040451 | 70 | 53 | 1.0 | 2.0 | 0.00 | 0.00 | 0.00 | 79 | 1019.0 |
| 20260906040256 | 70 | 53 | 1.0 | 2.0 | 0.00 | 0.00 | 0.00 | 79 | 1019.0 |
| 20260906040157 | 70 | 53 | 0.0 | 2.0 | 0.00 | 0.00 | 0.00 | 79 | 1019.0 |
| 20260906040131 | 70 | 53 | 0.0 | 1.0 | 0.00 | 0.00 | 0.00 | 79 | 1019.0 |
| 20260906035926 | 70 | 53 | 0.0 | 1.0 | 0.00 | 0.00 | 0.00 | 78 | 1019.1 |
| 20260906035836 | 71 | 53 | 0.0 | 2.0 | 0.00 | 0.00 | 0.00 | 78 | 1019.2 |
| 20260906035528 | 71 | 53 | 0.0 | 2.0 | 0.00 | 0.00 | 0.00 | 78 | 1019.2 |
| 20260906035255 | 71 | 53 | 0.0 | 2.0 | 0.00 | 0.00 | 0.00 | 78 | 1019.2 |
| 20260906035212 | 71 | 53 | 0.0 | 2.0 | 0.00 | 0.00 | 0.00 | 77 | 1019.2 |
| 20260906035132 | 71 | 53 | 0.0 | 2.0 | 0.00 | 0.00 | 0.00 | 77 | 1019.2 |
| 20260906035035 | 71 | 53 | 1.0 | 3.0 | 0.00 | 0.00 | 0.00 | 77 | 1019.3 |
| 20260906034936 | 71 | 53 | 1.0 | 4.0 | 0.00 | 0.00 | 0.00 | 77 | 1019.2 |
| 20260906034621 | 71 | 53 | 1.0 | 4.0 | 0.00 | 0.00 | 0.00 | 76 | 1019.0 |
| 20260906034457 | 71 | 53 | 2.0 | 4.0 | 0.00 | 0.00 | 0.00 | 77 | 1019.0 |
| 20260906034137 | 71 | 53 | 2.0 | 5.0 | 0.00 | 0.00 | 0.00 | 77 | 1019.0 |
| 20260906033921 | 71 | 63 | 2.0 | 6.0 | 0.00 | 0.00 | 0.00 | 77 | 1019.0 |
| 20260906033747 | 71 | 75 | 3.0 | 6.0 | 0.00 | 0.00 | 0.00 | 77 | 1019.0 |
| 20260906033742 | 71 | 73 | 3.0 | 6.0 | 0.00 | 0.00 | 0.00 | 77 | 1019.0 |
| 20260906033556 | 71 | 78 | 3.0 | 6.0 | 0.00 | 0.00 | 0.00 | 77 | 1019.0 |
| 20260906033259 | 71 | 84 | 4.0 | 6.0 | 0.00 | 0.00 | 0.00 | 78 | 1019.0 |
| 20260906033221 | 71 | 76 | 4.0 | 6.0 | 0.00 | 0.00 | 0.00 | 78 | 1019.0 |
| 20260906033108 | 71 | 86 | 3.0 | 4.0 | 0.00 | 0.00 | 0.00 | 78 | 1019.0 |
| 20260906032819 | 70 | 82 | 2.0 | 4.0 | 0.00 | 0.00 | 0.00 | 78 | 1019.1 |
| 20260906032657 | 70 | 78 | 0.0 | 3.0 | 0.00 | 0.00 | 0.00 | 78 | 1019.1 |
| 20260906032635 | 70 | 81 | 0.0 | 3.0 | 0.00 | 0.00 | 0.00 | 78 | 1019.1 |
| 20260906032109 | 71 | 266 | 0.0 | 0.0 | 0.00 | 0.00 | 0.00 | 78 | 1019.3 |
| 20260906032050 | 71 | 266 | 0.0 | 0.0 | 0.00 | 0.00 | 0.00 | 78 | 1019.3 |
| 20260906031907 | 71 | 266 | 0.0 | 0.0 | 0.00 | 0.00 | 0.00 | 77 | 1019.4 |
| 20260906031306 | 71 | 266 | 0.0 | 2.0 | 0.00 | 0.00 | 0.00 | 77 | 1019.6 |
| 20260906031034 | 71 | 266 | 0.0 | 2.0 | 0.00 | 0.00 | 0.00 | 78 | 1019.7 |
| 20260906030957 | 71 | 266 | 0.0 | 2.0 | 0.00 | 0.00 | 0.00 | 78 | 1019.6 |
| 20260906030752 | 71 | 266 | 1.0 | 2.0 | 0.00 | 0.00 | 0.00 | 77 | 1019.8 |
| 20260906030700 | 71 | 266 | 1.0 | 2.0 | 0.00 | 0.00 | 0.00 | 77 | 1019.7 |
| 20260906030639 | 71 | 266 | 1.0 | 2.0 | 0.00 | 0.00 | 0.00 | 77 | 1019.7 |
| 20260906030534 | 71 | 266 | 0.0 | 2.0 | 0.00 | 0.00 | 0.00 | 77 | 1019.7 |
| 20260906030248 | 71 | 266 | 0.0 | 3.0 | 0.00 | 0.00 | 0.00 | 76 | 1019.6 |
| 20260906030211 | 71 | 266 | 0.0 | 3.0 | 0.00 | 0.00 | 0.00 | 76 | 1019.6 |
| 20260906030106 | 72 | 266 | 0.0 | 3.0 | 0.00 | 0.00 | 0.00 | 76 | 1019.6 |
| 20260906030009 | 71 | 266 | 1.0 | 3.0 | 0.00 | 0.00 | 0.00 | 76 | 1019.6 |
| 20260906025938 | 72 | 266 | 1.0 | 3.0 | 0.00 | 0.00 | 0.00 | 76 | 1019.6 |
| 20260906025835 | 72 | 269 | 2.0 | 3.0 | 0.00 | 0.00 | 0.00 | 76 | 1019.6 |
| 20260906025700 | 72 | 276 | 0.0 | 3.0 | 0.00 | 0.00 | 0.00 | 76 | 1019.7 |
| 20260906025639 | 72 | 265 | 0.0 | 3.0 | 0.00 | 0.00 | 0.00 | 76 | 1019.7 |
| 20260906025217 | 72 | 258 | 2.0 | 3.0 | 0.00 | 0.00 | 0.00 | 75 | 1019.6 |
| 20260906024843 | 72 | 252 | 2.0 | 3.0 | 0.00 | 0.00 | 0.00 | 75 | 1019.7 |
| 20260906024705 | 72 | 256 | 1.0 | 2.0 | 0.00 | 0.00 | 0.00 | 75 | 1019.7 |
| 20260906024541 | 72 | 225 | 1.0 | 2.0 | 0.00 | 0.00 | 0.00 | 75 | 1019.7 |
| 20260906024512 | 72 | 225 | 1.0 | 2.0 | 0.00 | 0.00 | 0.00 | 74 | 1019.8 |
| 20260906023743 | 72 | 198 | 1.0 | 2.0 | 0.00 | 0.00 | 0.00 | 73 | 1019.4 |
| 20260906023717 | 72 | 134 | 0.0 | 1.0 | 0.00 | 0.00 | 0.00 | 73 | 1019.4 |
| 20260906023606 | 72 | 121 | 0.0 | 2.0 | 0.00 | 0.00 | 0.00 | 73 | 1019.3 |
| 20260906023516 | 73 | 121 | 0.0 | 2.0 | 0.00 | 0.00 | 0.00 | 73 | 1019.3 |
| 20260906023442 | 73 | 121 | 0.0 | 2.0 | 0.00 | 0.00 | 0.00 | 73 | 1019.3 |
| 20260906023352 | 73 | 121 | 0.0 | 2.0 | 0.00 | 0.00 | 0.00 | 73 | 1019.2 |
| 20260906022919 | 73 | 121 | 1.0 | 2.0 | 0.00 | 0.00 | 0.00 | 73 | 1019.2 |
| 20260906022537 | 73 | 155 | 0.0 | 2.0 | 0.00 | 0.00 | 0.00 | 73 | 1019.3 |
| 20260906022117 | 73 | 155 | 0.0 | 2.0 | 0.00 | 0.00 | 0.00 | 72 | 1019.4 |
| 20260906022040 | 73 | 155 | 0.0 | 3.0 | 0.00 | 0.00 | 0.00 | 72 | 1019.4 |
| 20260906021833 | 73 | 155 | 1.0 | 4.0 | 0.00 | 0.00 | 0.00 | 71 | 1019.3 |
| 20260906021722 | 73 | 146 | 0.0 | 6.0 | 0.00 | 0.00 | 0.00 | 71 | 1019.2 |
| 20260906021708 | 73 | 136 | 0.0 | 6.0 | 0.00 | 0.00 | 0.00 | 71 | 1019.3 |
| 20260906021554 | 73 | 136 | 0.0 | 6.0 | 0.00 | 0.00 | 0.00 | 71 | 1019.2 |
| 20260906021314 | 73 | 136 | 2.0 | 6.0 | 0.00 | 0.00 | 0.00 | 70 | 1019.3 |
| 20260906021227 | 73 | 122 | 2.0 | 6.0 | 0.00 | 0.00 | 0.00 | 71 | 1019.3 |
| 20260906021129 | 73 | 108 | 3.0 | 6.0 | 0.00 | 0.00 | 0.00 | 71 | 1019.3 |
| 20260906020828 | 73 | 90 | 4.0 | 6.0 | 0.00 | 0.00 | 0.00 | 71 | 1019.1 |
| 20260906020649 | 73 | 44 | 2.0 | 4.0 | 0.00 | 0.00 | 0.00 | 72 | 1019.1 |
| 20260906020641 | 72 | 49 | 2.0 | 4.0 | 0.00 | 0.00 | 0.00 | 72 | 1019.1 |
| 20260906020458 | 72 | 9 | 2.0 | 4.0 | 0.00 | 0.00 | 0.00 | 71 | 1019.2 |
| 20260906020230 | 72 | 9 | 0.0 | 4.0 | 0.00 | 0.00 | 0.00 | 72 | 1019.2 |
| 20260906020145 | 72 | 350 | 0.0 | 1.0 | 0.00 | 0.00 | 0.00 | 71 | 1019.3 |
| 20260906020110 | 72 | 350 | 0.0 | 1.0 | 0.00 | 0.00 | 0.00 | 71 | 1019.3 |
| 20260906015920 | 72 | 350 | 0.0 | 2.0 | 0.00 | 0.00 | 0.00 | 71 | 1019.3 |
| 20260906015803 | 72 | 350 | 0.0 | 2.0 | 0.00 | 0.00 | 0.00 | 72 | 1019.2 |
| 20260906015627 | 72 | 350 | 0.0 | 3.0 | 0.00 | 0.00 | 0.00 | 72 | 1019.2 |
| 20260906015456 | 72 | 350 | 1.0 | 3.0 | 0.00 | 0.00 | 0.00 | 72 | 1019.1 |
| 20260906015414 | 72 | 350 | 1.0 | 3.0 | 0.00 | 0.00 | 0.00 | 72 | 1019.2 |
| 20260906015335 | 72 | 350 | 1.0 | 3.0 | 0.00 | 0.00 | 0.00 | 72 | 1019.1 |
| 20260906015201 | 72 | 350 | 1.0 | 3.0 | 0.00 | 0.00 | 0.00 | 72 | 1019.3 |
| 20260906015050 | 72 | 350 | 1.0 | 3.0 | 0.00 | 0.00 | 0.00 | 72 | 1019.3 |
| 20260906014709 | 72 | 350 | 2.0 | 3.0 | 0.00 | 0.00 | 0.00 | 72 | 1019.4 |
| 20260906014534 | 72 | 350 | 0.0 | 3.0 | 0.00 | 0.00 | 0.00 | 72 | 1019.4 |
| 20260906014452 | 72 | 350 | 0.0 | 4.0 | 0.00 | 0.00 | 0.00 | 72 | 1019.4 |
| 20260906014111 | 72 | 350 | 1.0 | 4.0 | 0.00 | 0.00 | 0.00 | 72 | 1019.4 |
| 20260906013945 | 72 | 350 | 1.0 | 4.0 | 0.00 | 0.00 | 0.00 | 72 | 1019.4 |
| 20260906013828 | 72 | 350 | 2.0 | 4.0 | 0.00 | 0.00 | 0.00 | 71 | 1019.4 |
| 20260906013404 | 72 | 348 | 3.0 | 4.0 | 0.00 | 0.00 | 0.00 | 71 | 1019.5 |
| 20260906013317 | 72 | 346 | 2.0 | 4.0 | 0.00 | 0.00 | 0.00 | 71 | 1019.6 |
| 20260906013134 | 72 | 338 | 2.0 | 3.0 | 0.00 | 0.00 | 0.00 | 71 | 1019.6 |
| 20260906013002 | 72 | 338 | 2.0 | 3.0 | 0.00 | 0.00 | 0.00 | 71 | 1019.5 |
| 20260906012840 | 72 | 336 | 2.0 | 3.0 | 0.00 | 0.00 | 0.00 | 71 | 1019.6 |
| 20260906012704 | 72 | 336 | 0.0 | 2.0 | 0.00 | 0.00 | 0.00 | 71 | 1019.7 |
| 20260906012630 | 72 | 336 | 0.0 | 2.0 | 0.00 | 0.00 | 0.00 | 71 | 1019.7 |
| 20260906012209 | 72 | 336 | 1.0 | 4.0 | 0.00 | 0.00 | 0.00 | 71 | 1019.9 |
| 20260906012056 | 73 | 336 | 1.0 | 4.0 | 0.00 | 0.00 | 0.00 | 71 | 1019.8 |
| 20260906011552 | 73 | 336 | 2.0 | 4.0 | 0.00 | 0.00 | 0.00 | 70 | 1019.5 |
| 20260906011208 | 73 | 331 | 3.0 | 4.0 | 0.00 | 0.00 | 0.00 | 69 | 1019.4 |
| 20260906010539 | 73 | 22 | 2.0 | 4.0 | 0.00 | 0.00 | 0.00 | 69 | 1019.3 |
| 20260906010419 | 73 | 46 | 1.0 | 3.0 | 0.00 | 0.00 | 0.00 | 69 | 1019.4 |
| 20260906010159 | 73 | 47 | 1.0 | 3.0 | 0.00 | 0.00 | 0.00 | 69 | 1019.4 |
| 20260906010104 | 73 | 48 | 1.0 | 3.0 | 0.00 | 0.00 | 0.00 | 69 | 1019.5 |
| 20260906010016 | 73 | 48 | 1.0 | 3.0 | 0.00 | 0.00 | 0.00 | 68 | 1019.4 |
| 20260906005839 | 73 | 49 | 0.0 | 1.0 | 0.00 | 0.00 | 0.00 | 68 | 1019.5 |
| 20260906005639 | 73 | 49 | 0.0 | 1.0 | 0.00 | 0.00 | 0.00 | 67 | 1019.6 |
| 20260906005155 | 73 | 49 | 1.0 | 1.0 | 0.00 | 0.00 | 0.00 | 68 | 1019.8 |
| 20260906005121 | 73 | 49 | 0.0 | 3.0 | 0.00 | 0.00 | 0.00 | 68 | 1019.8 |
| 20260906005034 | 73 | 49 | 0.0 | 3.0 | 0.00 | 0.00 | 0.00 | 68 | 1019.8 |
| 20260906004929 | 73 | 49 | 0.0 | 3.0 | 0.00 | 0.00 | 0.00 | 67 | 1019.7 |
| 20260906004727 | 73 | 49 | 0.0 | 3.0 | 0.00 | 0.00 | 0.00 | 67 | 1019.7 |
| 20260906004357 | 73 | 49 | 0.0 | 3.0 | 0.00 | 0.00 | 0.00 | 67 | 1019.6 |
| 20260906004137 | 73 | 49 | 1.0 | 3.0 | 0.00 | 0.00 | 0.00 | 67 | 1019.6 |
| 20260906004044 | 73 | 49 | 1.0 | 3.0 | 0.00 | 0.00 | 0.00 | 67 | 1019.6 |
| 20260906003623 | 73 | 49 | 1.0 | 3.0 | 0.00 | 0.00 | 0.00 | 68 | 1019.6 |
| 20260906003435 | 73 | 49 | 0.0 | 3.0 | 0.00 | 0.00 | 0.00 | 67 | 1019.6 |
| 20260906003330 | 73 | 49 | 1.0 | 3.0 | 0.00 | 0.00 | 0.00 | 67 | 1019.7 |
| 20260906003114 | 73 | 49 | 1.0 | 2.0 | 0.00 | 0.00 | 0.00 | 67 | 1019.8 |
| 20260906003041 | 73 | 49 | 2.0 | 3.0 | 0.00 | 0.00 | 0.00 | 67 | 1019.8 |
| 20260906003005 | 73 | 49 | 1.0 | 3.0 | 0.00 | 0.00 | 0.00 | 67 | 1019.8 |
| 20260906002843 | 73 | 49 | 0.0 | 3.0 | 0.00 | 0.00 | 0.00 | 67 | 1019.7 |
| 20260906002634 | 73 | 49 | 0.0 | 3.0 | 0.00 | 0.00 | 0.00 | 67 | 1019.7 |
| 20260906002547 | 74 | 49 | 1.0 | 3.0 | 0.00 | 0.00 | 0.00 | 66 | 1019.8 |
| 20260906002129 | 74 | 49 | 1.0 | 2.0 | 0.00 | 0.00 | 0.00 | 66 | 1019.8 |
| 20260906001735 | 74 | 49 | 0.0 | 2.0 | 0.00 | 0.00 | 0.00 | 66 | 1019.9 |
| 20260906001602 | 74 | 49 | 0.0 | 2.0 | 0.00 | 0.00 | 0.00 | 66 | 1020.0 |
| 20260906001244 | 74 | 49 | 0.0 | 2.0 | 0.00 | 0.00 | 0.00 | 66 | 1020.1 |
| 20260906001011 | 73 | 49 | 1.0 | 2.0 | 0.00 | 0.00 | 0.00 | 66 | 1020.0 |
| 20260906000856 | 73 | 49 | 1.0 | 2.0 | 0.00 | 0.00 | 0.00 | 65 | 1019.9 |
| 20260906000825 | 74 | 49 | 1.0 | 2.0 | 0.00 | 0.00 | 0.00 | 66 | 1019.9 |
| 20260906000627 | 73 | 51 | 0.0 | 1.0 | 0.00 | 0.00 | 0.00 | 66 | 1019.9 |
| 20260906000348 | 73 | 88 | 0.0 | 0.0 | 0.00 | 0.00 | 0.00 | 66 | 1019.8 |
| 20260905235835 | 73 | 88 | 0.0 | 0.0 | 0.00 | 0.00 | 0.00 | 66 | 1019.9 |
| 20260905235741 | 73 | 88 | 0.0 | 0.0 | 0.00 | 0.00 | 0.00 | 66 | 1019.9 |
| 20260905235716 | 74 | 88 | 0.0 | 0.0 | 0.00 | 0.00 | 0.00 | 67 | 1019.9 |
| 20260905235549 | 74 | 88 | 0.0 | 0.0 | 0.00 | 0.00 | 0.00 | 68 | 1019.7 |
| 20260905235322 | 74 | 88 | 0.0 | 0.0 | 0.00 | 0.00 | 0.00 | 69 | 1019.7 |
| 20260905235207 | 74 | 88 | 0.0 | 0.0 | 0.00 | 0.00 | 0.00 | 68 | 1019.7 |
| 20260905235011 | 74 | 88 | 0.0 | 0.0 | 0.00 | 0.00 | 0.00 | 67 | 1019.8 |
| 20260905234932 | 74 | 88 | 0.0 | 0.0 | 0.00 | 0.00 | 0.00 | 67 | 1019.8 |
| 20260905234842 | 74 | 88 | 0.0 | 2.0 | 0.00 | 0.00 | 0.00 | 67 | 1020.0 |
| 20260905234713 | 75 | 88 | 0.0 | 2.0 | 0.00 | 0.00 | 0.00 | 66 | 1020.0 |
| 20260905234521 | 75 | 88 | 0.0 | 2.0 | 0.00 | 0.00 | 0.00 | 66 | 1020.0 |
| 20260905234404 | 75 | 88 | 0.0 | 2.0 | 0.00 | 0.00 | 0.00 | 65 | 1020.1 |
| 20260905234150 | 75 | 88 | 0.0 | 2.0 | 0.00 | 0.00 | 0.00 | 64 | 1020.0 |
| 20260905234116 | 75 | 88 | 0.0 | 2.0 | 0.00 | 0.00 | 0.00 | 63 | 1020.0 |
| 20260905234025 | 75 | 88 | 0.0 | 0.0 | 0.00 | 0.00 | 0.00 | 63 | 1020.0 |
| 20260905233907 | 75 | 88 | 0.0 | 1.0 | 0.00 | 0.00 | 0.00 | 63 | 1019.9 |
| 20260905233533 | 76 | 88 | 0.0 | 1.0 | 0.00 | 0.00 | 0.00 | 62 | 1020.0 |
| 20260905233053 | 76 | 88 | 0.0 | 1.0 | 0.00 | 0.00 | 0.00 | 61 | 1020.0 |
| 20260905233018 | 76 | 88 | 0.0 | 1.0 | 0.00 | 0.00 | 0.00 | 60 | 1019.9 |
| 20260905232943 | 76 | 88 | 0.0 | 1.0 | 0.00 | 0.00 | 0.00 | 60 | 1019.9 |
| 20260905232854 | 76 | 89 | 0.0 | 0.0 | 0.00 | 0.00 | 0.00 | 60 | 1019.9 |
| 20260905232759 | 76 | 89 | 0.0 | 1.0 | 0.00 | 0.00 | 0.00 | 60 | 1020.0 |
| 20260905232044 | 75 | 89 | 0.0 | 1.0 | 0.00 | 0.00 | 0.00 | 60 | 1020.0 |
| 20260905232029 | 75 | 89 | 0.0 | 1.0 | 0.00 | 0.00 | 0.00 | 60 | 1020.0 |
| 20260905231856 | 76 | 89 | 0.0 | 1.0 | 0.00 | 0.00 | 0.00 | 61 | 1020.0 |
| 20260905231642 | 75 | 89 | 0.0 | 1.0 | 0.00 | 0.00 | 0.00 | 60 | 1020.0 |
| 20260905231539 | 75 | 59 | 0.0 | 0.0 | 0.00 | 0.00 | 0.00 | 60 | 1020.0 |
| 20260905231424 | 75 | 59 | 0.0 | 0.0 | 0.00 | 0.00 | 0.00 | 60 | 1019.9 |
| 20260905231355 | 75 | 59 | 0.0 | 0.0 | 0.00 | 0.00 | 0.00 | 60 | 1019.8 |
| 20260905231331 | 75 | 59 | 0.0 | 0.0 | 0.00 | 0.00 | 0.00 | 60 | 1019.9 |
| 20260905231224 | 75 | 59 | 0.0 | 0.0 | 0.00 | 0.00 | 0.00 | 60 | 1019.9 |
| 20260905231127 | 75 | 59 | 0.0 | 1.0 | 0.00 | 0.00 | 0.00 | 60 | 1019.9 |
| 20260905231022 | 75 | 59 | 0.0 | 2.0 | 0.00 | 0.00 | 0.00 | 60 | 1019.9 |
| 20260905230939 | 75 | 59 | 0.0 | 2.0 | 0.00 | 0.00 | 0.00 | 60 | 1019.9 |
| 20260905230908 | 75 | 59 | 0.0 | 2.0 | 0.00 | 0.00 | 0.00 | 60 | 1019.9 |
| 20260905230850 | 75 | 59 | 0.0 | 2.0 | 0.00 | 0.00 | 0.00 | 60 | 1019.9 |
| 20260905230414 | 75 | 59 | 1.0 | 2.0 | 0.00 | 0.00 | 0.00 | 60 | 1019.9 |
| 20260905230311 | 75 | 59 | 0.0 | 2.0 | 0.00 | 0.00 | 0.00 | 61 | 1020.0 |
| 20260905230137 | 75 | 137 | 0.0 | 0.0 | 0.00 | 0.00 | 0.00 | 61 | 1020.0 |
| 20260905230104 | 75 | 137 | 0.0 | 1.0 | 0.00 | 0.00 | 0.00 | 60 | 1020.0 |
| 20260905230032 | 75 | 137 | 0.0 | 1.0 | 0.00 | 0.00 | 0.00 | 60 | 1020.1 |
| 20260905225922 | 75 | 137 | 0.0 | 1.0 | 0.00 | 0.00 | 0.00 | 60 | 1020.0 |
| 20260905225828 | 75 | 137 | 0.0 | 1.0 | 0.00 | 0.00 | 0.00 | 61 | 1020.0 |
| 20260905225731 | 75 | 137 | 0.0 | 1.0 | 0.00 | 0.00 | 0.00 | 61 | 1020.0 |
| 20260905225639 | 75 | 137 | 0.0 | 1.0 | 0.00 | 0.00 | 0.00 | 61 | 1020.0 |
| 20260905225614 | 75 | 137 | 0.0 | 1.0 | 0.00 | 0.00 | 0.00 | 61 | 1019.8 |
| 20260905225526 | 75 | 137 | 0.0 | 0.0 | 0.00 | 0.00 | 0.00 | 63 | 1019.9 |
| 20260905225409 | 75 | 137 | 0.0 | 0.0 | 0.00 | 0.00 | 0.00 | 63 | 1019.9 |
| 20260905225308 | 75 | 137 | 0.0 | 0.0 | 0.00 | 0.00 | 0.00 | 61 | 1020.0 |
| 20260905225216 | 75 | 137 | 0.0 | 1.0 | 0.00 | 0.00 | 0.00 | 61 | 1020.0 |
| 20260905225102 | 75 | 137 | 0.0 | 1.0 | 0.00 | 0.00 | 0.00 | 62 | 1020.0 |
| 20260905224424 | 75 | 137 | 0.0 | 2.0 | 0.00 | 0.00 | 0.00 | 60 | 1020.0 |
| 20260905224312 | 75 | 137 | 0.0 | 2.0 | 0.00 | 0.00 | 0.00 | 61 | 1019.9 |
| 20260905224143 | 76 | 137 | 0.0 | 2.0 | 0.00 | 0.00 | 0.00 | 61 | 1019.9 |
| 20260905224032 | 76 | 137 | 1.0 | 2.0 | 0.00 | 0.00 | 0.00 | 61 | 1019.8 |
| 20260905223702 | 76 | 166 | 1.0 | 2.0 | 0.00 | 0.00 | 0.00 | 61 | 1019.9 |
| 20260905223517 | 76 | 201 | 0.0 | 1.0 | 0.00 | 0.00 | 0.00 | 60 | 1019.9 |
| 20260905223410 | 76 | 201 | 0.0 | 0.0 | 0.00 | 0.00 | 0.00 | 60 | 1019.9 |
| 20260905223406 | 76 | 201 | 0.0 | 0.0 | 0.00 | 0.00 | 0.00 | 60 | 1019.9 |
| 20260905223254 | 76 | 201 | 0.0 | 0.0 | 0.00 | 0.00 | 0.00 | 60 | 1019.9 |
| 20260905223203 | 76 | 201 | 0.0 | 1.0 | 0.00 | 0.00 | 0.00 | 60 | 1020.0 |
| 20260905223138 | 76 | 201 | 0.0 | 1.0 | 0.00 | 0.00 | 0.00 | 59 | 1020.0 |
| 20260905222748 | 76 | 201 | 0.0 | 2.0 | 0.00 | 0.00 | 0.00 | 58 | 1019.9 |
| 20260905222703 | 76 | 201 | 0.0 | 2.0 | 0.00 | 0.00 | 0.00 | 58 | 1019.9 |
| 20260905222540 | 76 | 201 | 0.0 | 2.0 | 0.00 | 0.00 | 0.00 | 58 | 1019.9 |
| 20260905221527 | 76 | 201 | 1.0 | 2.0 | 0.00 | 0.00 | 0.00 | 57 | 1019.9 |
| 20260905221423 | 77 | 201 | 1.0 | 2.0 | 0.00 | 0.00 | 0.00 | 57 | 1019.9 |
| 20260905221416 | 77 | 201 | 1.0 | 2.0 | 0.00 | 0.00 | 0.00 | 57 | 1019.8 |
| 20260905220914 | 77 | 107 | 0.0 | 0.0 | 0.00 | 0.00 | 0.00 | 57 | 1019.8 |
| 20260905220554 | 77 | 107 | 0.0 | 0.0 | 0.00 | 0.00 | 0.00 | 57 | 1019.8 |
| 20260905215922 | 77 | 107 | 0.0 | 0.0 | 0.00 | 0.00 | 0.00 | 55 | 1019.8 |
| 20260905215817 | 77 | 107 | 0.0 | 0.0 | 0.00 | 0.00 | 0.00 | 55 | 1019.9 |
| 20260905215734 | 78 | 107 | 0.0 | 1.0 | 0.00 | 0.00 | 0.00 | 55 | 1019.8 |
| 20260905215701 | 78 | 107 | 0.0 | 1.0 | 0.00 | 0.00 | 0.00 | 54 | 1019.8 |
| 20260905215646 | 78 | 107 | 0.0 | 1.0 | 0.00 | 0.00 | 0.00 | 54 | 1019.8 |
| 20260905215531 | 78 | 107 | 0.0 | 2.0 | 0.00 | 0.00 | 0.00 | 55 | 1019.8 |
| 20260905215428 | 78 | 107 | 0.0 | 2.0 | 0.00 | 0.00 | 0.00 | 55 | 1019.7 |
| 20260905215020 | 78 | 107 | 1.0 | 2.0 | 0.00 | 0.00 | 0.00 | 54 | 1019.8 |
| 20260905214947 | 78 | 107 | 1.0 | 2.0 | 0.00 | 0.00 | 0.00 | 54 | 1019.8 |
| 20260905214922 | 78 | 107 | 1.0 | 2.0 | 0.00 | 0.00 | 0.00 | 54 | 1019.8 |
| 20260905214814 | 78 | 107 | 2.0 | 2.0 | 0.00 | 0.00 | 0.00 | 54 | 1019.7 |
| 20260905214700 | 78 | 107 | 2.0 | 2.0 | 0.00 | 0.00 | 0.00 | 54 | 1019.8 |
| 20260905214531 | 78 | 107 | 0.0 | 2.0 | 0.00 | 0.00 | 0.00 | 54 | 1019.8 |
| 20260905214418 | 78 | 119 | 0.0 | 1.0 | 0.00 | 0.00 | 0.00 | 54 | 1019.9 |
| 20260905214345 | 78 | 119 | 0.0 | 1.0 | 0.00 | 0.00 | 0.00 | 54 | 1019.8 |
| 20260905214313 | 78 | 119 | 0.0 | 1.0 | 0.00 | 0.00 | 0.00 | 54 | 1020.0 |
| 20260905214131 | 78 | 119 | 1.0 | 1.0 | 0.00 | 0.00 | 0.00 | 55 | 1020.0 |
| 20260905214000 | 78 | 119 | 0.0 | 1.0 | 0.00 | 0.00 | 0.00 | 55 | 1020.0 |
| 20260905213841 | 78 | 119 | 0.0 | 1.0 | 0.00 | 0.00 | 0.00 | 55 | 1020.0 |
| 20260905213714 | 78 | 78 | 0.0 | 0.0 | 0.00 | 0.00 | 0.00 | 55 | 1019.9 |
| 20260905213631 | 78 | 78 | 0.0 | 1.0 | 0.00 | 0.00 | 0.00 | 55 | 1019.9 |
| 20260905213616 | 78 | 78 | 0.0 | 1.0 | 0.00 | 0.00 | 0.00 | 54 | 1019.9 |
| 20260905213221 | 78 | 78 | 0.0 | 1.0 | 0.00 | 0.00 | 0.00 | 53 | 1019.8 |
| 20260905212853 | 78 | 78 | 0.0 | 2.0 | 0.00 | 0.00 | 0.00 | 53 | 1019.9 |
| 20260905212755 | 78 | 78 | 0.0 | 2.0 | 0.00 | 0.00 | 0.00 | 53 | 1019.8 |
| 20260905212717 | 79 | 78 | 0.0 | 2.0 | 0.00 | 0.00 | 0.00 | 53 | 1019.9 |
| 20260905212643 | 79 | 78 | 0.0 | 3.0 | 0.00 | 0.00 | 0.00 | 53 | 1019.9 |
| 20260905212532 | 79 | 78 | 1.0 | 3.0 | 0.00 | 0.00 | 0.00 | 53 | 1019.9 |
| 20260905212215 | 79 | 78 | 1.0 | 3.0 | 0.00 | 0.00 | 0.00 | 53 | 1019.9 |
| 20260905212058 | 79 | 78 | 1.0 | 3.0 | 0.00 | 0.00 | 0.00 | 53 | 1019.9 |
| 20260905211926 | 79 | 78 | 2.0 | 4.0 | 0.00 | 0.00 | 0.00 | 52 | 1019.9 |
| 20260905211542 | 79 | 78 | 2.0 | 4.0 | 0.00 | 0.00 | 0.00 | 52 | 1019.9 |
| 20260905211414 | 80 | 79 | 2.0 | 4.0 | 0.00 | 0.00 | 0.00 | 52 | 1019.9 |
| 20260905211234 | 80 | 82 | 3.0 | 4.0 | 0.00 | 0.00 | 0.00 | 51 | 1019.9 |
| 20260905211055 | 80 | 74 | 3.0 | 4.0 | 0.00 | 0.00 | 0.00 | 51 | 1019.9 |
| 20260905210928 | 80 | 71 | 3.0 | 4.0 | 0.00 | 0.00 | 0.00 | 51 | 1019.9 |
| 20260905210834 | 80 | 76 | 3.0 | 4.0 | 0.00 | 0.00 | 0.00 | 51 | 1019.9 |
| 20260905210752 | 80 | 74 | 2.0 | 4.0 | 0.00 | 0.00 | 0.00 | 51 | 1020.0 |
| 20260905210612 | 80 | 70 | 2.0 | 3.0 | 0.00 | 0.00 | 0.00 | 50 | 1020.0 |
| 20260905210434 | 80 | 78 | 2.0 | 3.0 | 0.00 | 0.00 | 0.00 | 50 | 1020.0 |
| 20260905210324 | 80 | 74 | 2.0 | 3.0 | 0.00 | 0.00 | 0.00 | 50 | 1020.0 |
| 20260905210210 | 80 | 94 | 2.0 | 3.0 | 0.00 | 0.00 | 0.00 | 50 | 1020.0 |
| 20260905210128 | 80 | 94 | 1.0 | 2.0 | 0.00 | 0.00 | 0.00 | 50 | 1019.9 |
| 20260905205125 | 81 | 94 | 0.0 | 4.0 | 0.00 | 0.00 | 0.00 | 50 | 1020.0 |
| 20260905205000 | 81 | 94 | 0.0 | 4.0 | 0.00 | 0.00 | 0.00 | 50 | 1019.9 |
| 20260905204846 | 81 | 94 | 1.0 | 5.0 | 0.00 | 0.00 | 0.00 | 49 | 1020.0 |
| 20260905204817 | 81 | 94 | 1.0 | 5.0 | 0.00 | 0.00 | 0.00 | 49 | 1019.9 |
| 20260905204739 | 81 | 94 | 1.0 | 5.0 | 0.00 | 0.00 | 0.00 | 49 | 1019.9 |
| 20260905204613 | 81 | 79 | 2.0 | 5.0 | 0.00 | 0.00 | 0.00 | 49 | 1019.9 |
| 20260905204440 | 81 | 84 | 2.0 | 5.0 | 0.00 | 0.00 | 0.00 | 49 | 1019.9 |
| 20260905204245 | 81 | 86 | 3.0 | 5.0 | 0.00 | 0.00 | 0.00 | 49 | 1019.8 |
| 20260905203508 | 81 | 86 | 2.0 | 5.0 | 0.00 | 0.00 | 0.00 | 49 | 1019.8 |
| 20260905202935 | 82 | 76 | 2.0 | 4.0 | 0.00 | 0.00 | 0.00 | 49 | 1019.9 |
| 20260905202921 | 82 | 106 | 2.0 | 4.0 | 0.00 | 0.00 | 0.00 | 49 | 1019.8 |
| 20260905202732 | 82 | 75 | 1.0 | 4.0 | 0.00 | 0.00 | 0.00 | 49 | 1019.8 |
| 20260905202557 | 82 | 56 | 1.0 | 5.0 | 0.00 | 0.00 | 0.00 | 48 | 1019.9 |
| 20260905202509 | 82 | 56 | 1.0 | 5.0 | 0.00 | 0.00 | 0.00 | 48 | 1019.8 |
| 20260905202435 | 82 | 56 | 2.0 | 5.0 | 0.00 | 0.00 | 0.00 | 48 | 1019.8 |
| 20260905202300 | 82 | 56 | 2.0 | 5.0 | 0.00 | 0.00 | 0.00 | 47 | 1019.8 |
| 20260905202133 | 82 | 64 | 2.0 | 6.0 | 0.00 | 0.00 | 0.00 | 47 | 1019.8 |
| 20260905202116 | 82 | 70 | 2.0 | 6.0 | 0.00 | 0.00 | 0.00 | 47 | 1019.9 |
| 20260905202000 | 82 | 76 | 3.0 | 6.0 | 0.00 | 0.00 | 0.00 | 47 | 1019.8 |
| 20260905201833 | 82 | 53 | 3.0 | 7.0 | 0.00 | 0.00 | 0.00 | 47 | 1019.8 |
| 20260905201729 | 82 | 59 | 3.0 | 7.0 | 0.00 | 0.00 | 0.00 | 47 | 1019.8 |
| 20260905201646 | 82 | 84 | 3.0 | 7.0 | 0.00 | 0.00 | 0.00 | 47 | 1019.7 |
| 20260905201506 | 82 | 55 | 4.0 | 7.0 | 0.00 | 0.00 | 0.00 | 47 | 1019.8 |
| 20260905201327 | 82 | 50 | 4.0 | 7.0 | 0.00 | 0.00 | 0.00 | 48 | 1019.8 |
| 20260905200938 | 82 | 63 | 3.0 | 7.0 | 0.00 | 0.00 | 0.00 | 48 | 1019.8 |
| 20260905200801 | 82 | 57 | 2.0 | 5.0 | 0.00 | 0.00 | 0.00 | 48 | 1019.8 |
| 20260905200652 | 82 | 59 | 2.0 | 5.0 | 0.00 | 0.00 | 0.00 | 48 | 1019.7 |
| 20260905200618 | 82 | 44 | 3.0 | 5.0 | 0.00 | 0.00 | 0.00 | 48 | 1019.8 |
| 20260905200426 | 82 | 72 | 2.0 | 5.0 | 0.00 | 0.00 | 0.00 | 48 | 1019.7 |
| 20260905200301 | 82 | 44 | 3.0 | 5.0 | 0.00 | 0.00 | 0.00 | 48 | 1019.7 |
| 20260905200231 | 82 | 52 | 3.0 | 5.0 | 0.00 | 0.00 | 0.00 | 48 | 1019.7 |
| 20260905195407 | 82 | 56 | 2.0 | 4.0 | 0.00 | 0.00 | 0.00 | 49 | 1019.7 |
| 20260905195347 | 82 | 55 | 2.0 | 4.0 | 0.00 | 0.00 | 0.00 | 49 | 1019.7 |
| 20260905195204 | 82 | 46 | 1.0 | 4.0 | 0.00 | 0.00 | 0.00 | 49 | 1019.7 |
| 20260905195037 | 82 | 39 | 2.0 | 4.0 | 0.00 | 0.00 | 0.00 | 49 | 1019.6 |
| 20260905195012 | 82 | 39 | 1.0 | 4.0 | 0.00 | 0.00 | 0.00 | 49 | 1019.7 |
| 20260905194857 | 82 | 51 | 1.0 | 3.0 | 0.00 | 0.00 | 0.00 | 49 | 1019.6 |
| 20260905194726 | 82 | 51 | 1.0 | 4.0 | 0.00 | 0.00 | 0.00 | 49 | 1019.6 |
| 20260905194632 | 82 | 51 | 1.0 | 4.0 | 0.00 | 0.00 | 0.00 | 49 | 1019.6 |
| 20260905194606 | 83 | 51 | 1.0 | 4.0 | 0.00 | 0.00 | 0.00 | 49 | 1019.6 |
| 20260905194423 | 83 | 55 | 2.0 | 4.0 | 0.00 | 0.00 | 0.00 | 49 | 1019.7 |
| 20260905194307 | 83 | 57 | 2.0 | 4.0 | 0.00 | 0.00 | 0.00 | 49 | 1019.6 |
| 20260905194233 | 83 | 45 | 2.0 | 4.0 | 0.00 | 0.00 | 0.00 | 49 | 1019.6 |
| 20260905194114 | 83 | 45 | 2.0 | 4.0 | 0.00 | 0.00 | 0.00 | 49 | 1019.6 |
| 20260905193956 | 83 | 46 | 2.0 | 4.0 | 0.00 | 0.00 | 0.00 | 49 | 1019.7 |
| 20260905193846 | 83 | 46 | 1.0 | 4.0 | 0.00 | 0.00 | 0.00 | 49 | 1019.5 |
| 20260905193820 | 83 | 46 | 1.0 | 4.0 | 0.00 | 0.00 | 0.00 | 49 | 1019.6 |
| 20260905193651 | 83 | 37 | 1.0 | 3.0 | 0.00 | 0.00 | 0.00 | 49 | 1019.6 |
| 20260905193522 | 83 | 37 | 1.0 | 3.0 | 0.00 | 0.00 | 0.00 | 49 | 1019.6 |
| 20260905193403 | 83 | 39 | 1.0 | 3.0 | 0.00 | 0.00 | 0.00 | 49 | 1019.6 |
| 20260905193252 | 83 | 39 | 1.0 | 3.0 | 0.00 | 0.00 | 0.00 | 50 | 1019.6 |
| 20260905193149 | 83 | 39 | 1.0 | 4.0 | 0.00 | 0.00 | 0.00 | 50 | 1019.6 |
| 20260905193123 | 83 | 39 | 1.0 | 4.0 | 0.00 | 0.00 | 0.00 | 50 | 1019.6 |
| 20260905192951 | 83 | 38 | 0.0 | 4.0 | 0.00 | 0.00 | 0.00 | 50 | 1019.6 |
| 20260905192823 | 84 | 38 | 0.0 | 4.0 | 0.00 | 0.00 | 0.00 | 49 | 1019.6 |
| 20260905192722 | 84 | 38 | 1.0 | 4.0 | 0.00 | 0.00 | 0.00 | 50 | 1019.6 |
| 20260905192601 | 84 | 38 | 1.0 | 4.0 | 0.00 | 0.00 | 0.00 | 49 | 1019.5 |
| 20260905192451 | 84 | 47 | 0.0 | 2.0 | 0.00 | 0.00 | 0.00 | 49 | 1019.6 |
| 20260905192426 | 84 | 52 | 0.0 | 2.0 | 0.00 | 0.00 | 0.00 | 49 | 1019.6 |
| 20260905192256 | 85 | 52 | 1.0 | 2.0 | 0.00 | 0.00 | 0.00 | 49 | 1019.5 |
| 20260905191632 | 85 | 52 | 0.0 | 4.0 | 0.00 | 0.00 | 0.00 | 48 | 1019.6 |
| 20260905191223 | 85 | 52 | 1.0 | 4.0 | 0.00 | 0.00 | 0.00 | 48 | 1019.6 |
| 20260905191205 | 85 | 52 | 1.0 | 4.0 | 0.00 | 0.00 | 0.00 | 48 | 1019.5 |
| 20260905191032 | 85 | 52 | 1.0 | 4.0 | 0.00 | 0.00 | 0.00 | 48 | 1019.6 |
| 20260905190903 | 85 | 52 | 2.0 | 4.0 | 0.00 | 0.00 | 0.00 | 47 | 1019.6 |
| 20260905190759 | 85 | 52 | 2.0 | 4.0 | 0.00 | 0.00 | 0.00 | 47 | 1019.5 |
| 20260905190634 | 86 | 52 | 3.0 | 4.0 | 0.00 | 0.00 | 0.00 | 47 | 1019.5 |
| 20260905190529 | 86 | 63 | 2.0 | 4.0 | 0.00 | 0.00 | 0.00 | 47 | 1019.6 |
| 20260905190139 | 86 | 52 | 2.0 | 4.0 | 0.00 | 0.00 | 0.00 | 47 | 1019.5 |
| 20260905185803 | 86 | 53 | 2.0 | 4.0 | 0.00 | 0.00 | 0.00 | 46 | 1019.5 |
| 20260905185644 | 86 | 57 | 2.0 | 4.0 | 0.00 | 0.00 | 0.00 | 46 | 1019.4 |
| 20260905185509 | 86 | 52 | 2.0 | 3.0 | 0.00 | 0.00 | 0.00 | 46 | 1019.4 |
| 20260905185413 | 87 | 50 | 2.0 | 3.0 | 0.00 | 0.00 | 0.00 | 46 | 1019.4 |
| 20260905185346 | 87 | 53 | 2.0 | 3.0 | 0.00 | 0.00 | 0.00 | 45 | 1019.4 |
| 20260905185206 | 87 | 51 | 2.0 | 3.0 | 0.00 | 0.00 | 0.00 | 45 | 1019.5 |
| 20260905185046 | 87 | 46 | 2.0 | 3.0 | 0.00 | 0.00 | 0.00 | 45 | 1019.4 |
| 20260905185026 | 87 | 46 | 2.0 | 3.0 | 0.00 | 0.00 | 0.00 | 45 | 1019.5 |
| 20260905184549 | 87 | 48 | 2.0 | 4.0 | 0.00 | 0.00 | 0.00 | 44 | 1019.5 |
| 20260905184451 | 87 | 49 | 2.0 | 4.0 | 0.00 | 0.00 | 0.00 | 44 | 1019.5 |
| 20260905184409 | 87 | 49 | 2.0 | 4.0 | 0.00 | 0.00 | 0.00 | 44 | 1019.6 |
| 20260905184228 | 88 | 49 | 2.0 | 4.0 | 0.00 | 0.00 | 0.00 | 44 | 1019.7 |
| 20260905183739 | 88 | 63 | 2.0 | 5.0 | 0.00 | 0.00 | 0.00 | 43 | 1019.6 |
| 20260905183331 | 88 | 53 | 2.0 | 5.0 | 0.00 | 0.00 | 0.00 | 43 | 1019.6 |
| 20260905183245 | 88 | 53 | 3.0 | 5.0 | 0.00 | 0.00 | 0.00 | 42 | 1019.6 |
| 20260905183106 | 88 | 53 | 3.0 | 5.0 | 0.00 | 0.00 | 0.00 | 42 | 1019.6 |
| 20260905182821 | 89 | 59 | 3.0 | 6.0 | 0.00 | 0.00 | 0.00 | 42 | 1019.6 |
| 20260905182628 | 89 | 52 | 3.0 | 6.0 | 0.00 | 0.00 | 0.00 | 42 | 1019.5 |
| 20260905182202 | 89 | 53 | 3.0 | 6.0 | 0.00 | 0.00 | 0.00 | 41 | 1019.6 |
| 20260905182110 | 89 | 46 | 4.0 | 6.0 | 0.00 | 0.00 | 0.00 | 41 | 1019.5 |
| 20260905181923 | 89 | 55 | 4.0 | 8.0 | 0.00 | 0.00 | 0.00 | 41 | 1019.6 |
| 20260905181101 | 89 | 51 | 4.0 | 8.0 | 0.00 | 0.00 | 0.00 | 40 | 1019.6 |
| 20260905181011 | 89 | 58 | 5.0 | 8.0 | 0.00 | 0.00 | 0.00 | 40 | 1019.7 |
| 20260905180532 | 90 | 56 | 5.0 | 8.0 | 0.00 | 0.00 | 0.00 | 40 | 1019.6 |
| 20260905180136 | 90 | 82 | 5.0 | 11.0 | 0.00 | 0.00 | 0.00 | 39 | 1019.6 |
| 20260905175953 | 90 | 67 | 4.0 | 11.0 | 0.00 | 0.00 | 0.00 | 39 | 1019.7 |
| 20260905175812 | 90 | 55 | 4.0 | 11.0 | 0.00 | 0.00 | 0.00 | 39 | 1019.7 |
| 20260905175713 | 90 | 56 | 5.0 | 12.0 | 0.00 | 0.00 | 0.00 | 39 | 1019.7 |
| 20260905175627 | 90 | 81 | 6.0 | 12.0 | 0.00 | 0.00 | 0.00 | 39 | 1019.6 |
| 20260905175447 | 90 | 65 | 5.0 | 12.0 | 0.00 | 0.00 | 0.00 | 39 | 1019.7 |
| 20260905175300 | 90 | 52 | 5.0 | 12.0 | 0.00 | 0.00 | 0.00 | 39 | 1019.7 |
| 20260905175113 | 90 | 51 | 8.0 | 12.0 | 0.00 | 0.00 | 0.00 | 39 | 1019.8 |
| 20260905174938 | 90 | 68 | 6.0 | 12.0 | 0.00 | 0.00 | 0.00 | 39 | 1019.7 |
| 20260905174841 | 90 | 80 | 6.0 | 12.0 | 0.00 | 0.00 | 0.00 | 39 | 1019.7 |
| 20260905174757 | 90 | 72 | 7.0 | 11.0 | 0.00 | 0.00 | 0.00 | 39 | 1019.8 |
| 20260905174602 | 90 | 81 | 6.0 | 11.0 | 0.00 | 0.00 | 0.00 | 38 | 1019.7 |
| 20260905174413 | 90 | 84 | 7.0 | 11.0 | 0.00 | 0.00 | 0.00 | 39 | 1019.7 |
| 20260905174241 | 90 | 71 | 7.0 | 11.0 | 0.00 | 0.00 | 0.00 | 38 | 1019.7 |
| 20260905173859 | 90 | 78 | 6.0 | 12.0 | 0.00 | 0.00 | 0.00 | 38 | 1019.8 |
| 20260905173700 | 90 | 75 | 5.0 | 12.0 | 0.00 | 0.00 | 0.00 | 39 | 1019.8 |
| 20260905173434 | 90 | 84 | 6.0 | 12.0 | 0.00 | 0.00 | 0.00 | 38 | 1019.7 |
| 20260905173257 | 90 | 71 | 7.0 | 13.0 | 0.00 | 0.00 | 0.00 | 38 | 1019.8 |
| 20260905172936 | 91 | 79 | 6.0 | 13.0 | 0.00 | 0.00 | 0.00 | 38 | 1019.8 |
| 20260905172844 | 91 | 98 | 6.0 | 13.0 | 0.00 | 0.00 | 0.00 | 38 | 1019.8 |
| 20260905172335 | 91 | 98 | 4.0 | 13.0 | 0.00 | 0.00 | 0.00 | 38 | 1019.8 |
| 20260905172205 | 91 | 80 | 5.0 | 10.0 | 0.00 | 0.00 | 0.00 | 38 | 1019.8 |
| 20260905172020 | 91 | 65 | 5.0 | 11.0 | 0.00 | 0.00 | 0.00 | 38 | 1019.8 |
| 20260905171923 | 91 | 82 | 4.0 | 11.0 | 0.00 | 0.00 | 0.00 | 38 | 1019.9 |
| 20260905171836 | 91 | 78 | 5.0 | 11.0 | 0.00 | 0.00 | 0.00 | 38 | 1019.9 |
| 20260905171658 | 91 | 98 | 6.0 | 13.0 | 0.00 | 0.00 | 0.00 | 38 | 1019.9 |
| 20260905171327 | 91 | 84 | 8.0 | 14.0 | 0.00 | 0.00 | 0.00 | 38 | 1019.9 |
| 20260905171150 | 91 | 80 | 7.0 | 14.0 | 0.00 | 0.00 | 0.00 | 37 | 1019.9 |
| 20260905171013 | 91 | 28 | 9.0 | 14.0 | 0.00 | 0.00 | 0.00 | 37 | 1019.9 |
| 20260905170916 | 91 | 95 | 10.0 | 14.0 | 0.00 | 0.00 | 0.00 | 37 | 1019.9 |
| 20260905170440 | 91 | 90 | 7.0 | 14.0 | 0.00 | 0.00 | 0.00 | 37 | 1019.8 |
| 20260905170307 | 91 | 86 | 8.0 | 14.0 | 0.00 | 0.00 | 0.00 | 37 | 1019.9 |
| 20260905165906 | 91 | 46 | 8.0 | 14.0 | 0.00 | 0.00 | 0.00 | 38 | 1019.9 |
| 20260905165733 | 91 | 57 | 9.0 | 14.0 | 0.00 | 0.00 | 0.00 | 37 | 1019.9 |
| 20260905165636 | 91 | 68 | 7.0 | 14.0 | 0.00 | 0.00 | 0.00 | 37 | 1019.9 |
| 20260905165544 | 91 | 57 | 6.0 | 13.0 | 0.00 | 0.00 | 0.00 | 38 | 1020.0 |
| 20260905165401 | 91 | 86 | 8.0 | 13.0 | 0.00 | 0.00 | 0.00 | 38 | 1020.0 |
| 20260905165225 | 91 | 87 | 7.0 | 13.0 | 0.00 | 0.00 | 0.00 | 38 | 1020.0 |
| 20260905165217 | 91 | 87 | 7.0 | 13.0 | 0.00 | 0.00 | 0.00 | 38 | 1020.0 |
| 20260905165039 | 91 | 80 | 7.0 | 12.0 | 0.00 | 0.00 | 0.00 | 38 | 1020.0 |
| 20260905164858 | 91 | 80 | 6.0 | 11.0 | 0.00 | 0.00 | 0.00 | 39 | 1020.0 |
| 20260905164802 | 91 | 84 | 7.0 | 11.0 | 0.00 | 0.00 | 0.00 | 39 | 1020.0 |
| 20260905164715 | 91 | 90 | 6.0 | 11.0 | 0.00 | 0.00 | 0.00 | 38 | 1020.1 |
| 20260905164528 | 90 | 96 | 7.0 | 11.0 | 0.00 | 0.00 | 0.00 | 38 | 1020.1 |
| 20260905164347 | 90 | 81 | 6.0 | 11.0 | 0.00 | 0.00 | 0.00 | 38 | 1020.1 |
| 20260905164339 | 90 | 74 | 6.0 | 11.0 | 0.00 | 0.00 | 0.00 | 38 | 1020.1 |
| 20260905164158 | 90 | 46 | 5.0 | 11.0 | 0.00 | 0.00 | 0.00 | 39 | 1020.1 |
| 20260905164025 | 91 | 76 | 6.0 | 11.0 | 0.00 | 0.00 | 0.00 | 38 | 1020.1 |
| 20260905163922 | 91 | 86 | 8.0 | 11.0 | 0.00 | 0.00 | 0.00 | 38 | 1020.1 |
| 20260905163839 | 91 | 96 | 8.0 | 11.0 | 0.00 | 0.00 | 0.00 | 38 | 1020.1 |
| 20260905163316 | 91 | 53 | 7.0 | 11.0 | 0.00 | 0.00 | 0.00 | 38 | 1020.2 |
| 20260905163300 | 91 | 70 | 7.0 | 11.0 | 0.00 | 0.00 | 0.00 | 38 | 1020.2 |
| 20260905163127 | 91 | 160 | 6.0 | 12.0 | 0.00 | 0.00 | 0.00 | 39 | 1020.2 |
| 20260905162954 | 91 | 78 | 6.0 | 12.0 | 0.00 | 0.00 | 0.00 | 39 | 1020.2 |
| 20260905162855 | 90 | 80 | 6.0 | 12.0 | 0.00 | 0.00 | 0.00 | 39 | 1020.3 |
| 20260905162817 | 90 | 76 | 6.0 | 12.0 | 0.00 | 0.00 | 0.00 | 39 | 1020.2 |
| 20260905162633 | 91 | 69 | 6.0 | 12.0 | 0.00 | 0.00 | 0.00 | 38 | 1020.3 |
| 20260905162122 | 90 | 93 | 6.0 | 11.0 | 0.00 | 0.00 | 0.00 | 38 | 1020.3 |
| 20260905161941 | 90 | 112 | 8.0 | 11.0 | 0.00 | 0.00 | 0.00 | 38 | 1020.4 |
| 20260905161827 | 90 | 80 | 9.0 | 11.0 | 0.00 | 0.00 | 0.00 | 37 | 1020.3 |
| 20260905161753 | 90 | 119 | 7.0 | 12.0 | 0.00 | 0.00 | 0.00 | 37 | 1020.3 |
| 20260905161610 | 90 | 117 | 6.0 | 13.0 | 0.00 | 0.00 | 0.00 | 38 | 1020.3 |
| 20260905161438 | 90 | 86 | 6.0 | 13.0 | 0.00 | 0.00 | 0.00 | 38 | 1020.4 |
| 20260905161026 | 90 | 91 | 6.0 | 13.0 | 0.00 | 0.00 | 0.00 | 39 | 1020.3 |
| 20260905160524 | 90 | 46 | 9.0 | 13.0 | 0.00 | 0.00 | 0.00 | 39 | 1020.3 |
| 20260905160450 | 90 | 42 | 7.0 | 13.0 | 0.00 | 0.00 | 0.00 | 38 | 1020.3 |
| 20260905160312 | 90 | 76 | 6.0 | 12.0 | 0.00 | 0.00 | 0.00 | 38 | 1020.4 |
| 20260905160139 | 90 | 105 | 8.0 | 12.0 | 0.00 | 0.00 | 0.00 | 38 | 1020.4 |
| 20260905155728 | 90 | 81 | 7.0 | 13.0 | 0.00 | 0.00 | 0.00 | 39 | 1020.3 |
| 20260905155547 | 90 | 81 | 6.0 | 13.0 | 0.00 | 0.00 | 0.00 | 38 | 1020.5 |
| 20260905155425 | 90 | 59 | 5.0 | 13.0 | 0.00 | 0.00 | 0.00 | 38 | 1020.4 |
| 20260905155347 | 90 | 83 | 6.0 | 13.0 | 0.00 | 0.00 | 0.00 | 38 | 1020.5 |
| 20260905155204 | 90 | 71 | 8.0 | 13.0 | 0.00 | 0.00 | 0.00 | 38 | 1020.5 |
| 20260905155029 | 90 | 75 | 9.0 | 13.0 | 0.00 | 0.00 | 0.00 | 38 | 1020.5 |
| 20260905155000 | 90 | 50 | 9.0 | 13.0 | 0.00 | 0.00 | 0.00 | 38 | 1020.5 |
| 20260905154826 | 90 | 63 | 8.0 | 13.0 | 0.00 | 0.00 | 0.00 | 38 | 1020.5 |
| 20260905154645 | 90 | 18 | 6.0 | 12.0 | 0.00 | 0.00 | 0.00 | 39 | 1020.5 |
| 20260905154241 | 90 | 65 | 7.0 | 12.0 | 0.00 | 0.00 | 0.00 | 38 | 1020.5 |
| 20260905153721 | 90 | 82 | 7.0 | 12.0 | 0.00 | 0.00 | 0.00 | 38 | 1020.7 |
| 20260905153643 | 90 | 86 | 7.0 | 12.0 | 0.00 | 0.00 | 0.00 | 38 | 1020.7 |
| 20260905153515 | 90 | 69 | 8.0 | 12.0 | 0.00 | 0.00 | 0.00 | 38 | 1020.7 |
| 20260905153343 | 90 | 53 | 9.0 | 12.0 | 0.00 | 0.00 | 0.00 | 37 | 1020.7 |
| 20260905153231 | 90 | 71 | 7.0 | 12.0 | 0.00 | 0.00 | 0.00 | 38 | 1020.5 |
| 20260905153152 | 90 | 37 | 6.0 | 12.0 | 0.00 | 0.00 | 0.00 | 38 | 1020.6 |
| 20260905153011 | 90 | 49 | 6.0 | 10.0 | 0.00 | 0.00 | 0.00 | 40 | 1020.7 |
| 20260905152216 | 90 | 83 | 5.0 | 12.0 | 0.00 | 0.00 | 0.00 | 39 | 1020.7 |
| 20260905152043 | 90 | 103 | 6.0 | 12.0 | 0.00 | 0.00 | 0.00 | 39 | 1020.8 |
| 20260905151639 | 90 | 64 | 6.0 | 12.0 | 0.00 | 0.00 | 0.00 | 39 | 1020.8 |
| 20260905151455 | 90 | 46 | 7.0 | 12.0 | 0.00 | 0.00 | 0.00 | 39 | 1020.7 |
| 20260905151323 | 90 | 55 | 7.0 | 12.0 | 0.00 | 0.00 | 0.00 | 39 | 1020.8 |
| 20260905151259 | 90 | 41 | 7.0 | 12.0 | 0.00 | 0.00 | 0.00 | 39 | 1020.7 |
| 20260905151132 | 90 | 51 | 3.0 | 10.0 | 0.00 | 0.00 | 0.00 | 40 | 1020.9 |
| 20260905150957 | 90 | 351 | 6.0 | 10.0 | 0.00 | 0.00 | 0.00 | 40 | 1020.9 |
| 20260905150835 | 90 | 51 | 4.0 | 12.0 | 0.00 | 0.00 | 0.00 | 40 | 1020.9 |
| 20260905150755 | 90 | 100 | 3.0 | 12.0 | 0.00 | 0.00 | 0.00 | 40 | 1020.9 |
| 20260905150625 | 90 | 51 | 6.0 | 12.0 | 0.00 | 0.00 | 0.00 | 40 | 1021.0 |
| 20260905150455 | 90 | 79 | 8.0 | 12.0 | 0.00 | 0.00 | 0.00 | 40 | 1021.0 |
| 20260905150423 | 90 | 80 | 8.0 | 12.0 | 0.00 | 0.00 | 0.00 | 39 | 1021.0 |
| 20260905150253 | 90 | 52 | 6.0 | 12.0 | 0.00 | 0.00 | 0.00 | 39 | 1021.1 |
| 20260905150112 | 90 | 87 | 6.0 | 12.0 | 0.00 | 0.00 | 0.00 | 39 | 1021.1 |
| 20260905145950 | 89 | 82 | 3.0 | 9.0 | 0.00 | 0.00 | 0.00 | 40 | 1021.1 |
| 20260905145913 | 89 | 119 | 3.0 | 9.0 | 0.00 | 0.00 | 0.00 | 40 | 1021.2 |
| 20260905145735 | 89 | 82 | 6.0 | 9.0 | 0.00 | 0.00 | 0.00 | 40 | 1021.3 |
| 20260905145603 | 89 | 128 | 6.0 | 9.0 | 0.00 | 0.00 | 0.00 | 37 | 1021.3 |
| 20260905145152 | 89 | 84 | 5.0 | 9.0 | 0.00 | 0.00 | 0.00 | 39 | 1021.3 |
| 20260905145020 | 89 | 59 | 4.0 | 9.0 | 0.00 | 0.00 | 0.00 | 39 | 1021.3 |
| 20260905144906 | 89 | 126 | 3.0 | 8.0 | 0.00 | 0.00 | 0.00 | 41 | 1021.3 |
| 20260905144826 | 89 | 71 | 4.0 | 8.0 | 0.00 | 0.00 | 0.00 | 40 | 1021.2 |
| 20260905144643 | 89 | 57 | 5.0 | 11.0 | 0.00 | 0.00 | 0.00 | 40 | 1021.4 |
| 20260905144516 | 89 | 61 | 4.0 | 11.0 | 0.00 | 0.00 | 0.00 | 40 | 1021.4 |
| 20260905144442 | 89 | 56 | 4.0 | 11.0 | 0.00 | 0.00 | 0.00 | 40 | 1021.4 |
| 20260905143922 | 89 | 71 | 6.0 | 11.0 | 0.00 | 0.00 | 0.00 | 41 | 1021.5 |
| 20260905143813 | 89 | 96 | 6.0 | 11.0 | 0.00 | 0.00 | 0.00 | 40 | 1021.5 |
| 20260905143723 | 89 | 71 | 4.0 | 11.0 | 0.00 | 0.00 | 0.00 | 41 | 1021.5 |
| 20260905143159 | 88 | 75 | 5.0 | 11.0 | 0.00 | 0.00 | 0.00 | 42 | 1021.5 |
| 20260905143141 | 88 | 39 | 5.0 | 11.0 | 0.00 | 0.00 | 0.00 | 42 | 1021.5 |
| 20260905143005 | 88 | 71 | 7.0 | 11.0 | 0.00 | 0.00 | 0.00 | 41 | 1021.5 |
| 20260905142519 | 89 | 99 | 5.0 | 9.0 | 0.00 | 0.00 | 0.00 | 41 | 1021.6 |
| 20260905142421 | 89 | 102 | 4.0 | 10.0 | 0.00 | 0.00 | 0.00 | 41 | 1021.6 |
| 20260905142236 | 89 | 59 | 5.0 | 10.0 | 0.00 | 0.00 | 0.00 | 41 | 1021.7 |
| 20260905141843 | 88 | 72 | 3.0 | 10.0 | 0.00 | 0.00 | 0.00 | 41 | 1021.7 |
| 20260905141654 | 88 | 67 | 4.0 | 10.0 | 0.00 | 0.00 | 0.00 | 42 | 1021.6 |
| 20260905141210 | 88 | 84 | 6.0 | 11.0 | 0.00 | 0.00 | 0.00 | 42 | 1021.7 |
| 20260905141105 | 88 | 65 | 5.0 | 11.0 | 0.00 | 0.00 | 0.00 | 42 | 1021.8 |
| 20260905140920 | 88 | 36 | 6.0 | 11.0 | 0.00 | 0.00 | 0.00 | 42 | 1021.7 |
| 20260905140733 | 88 | 52 | 6.0 | 11.0 | 0.00 | 0.00 | 0.00 | 43 | 1021.9 |
| 20260905140546 | 88 | 48 | 7.0 | 11.0 | 0.00 | 0.00 | 0.00 | 43 | 1021.9 |
| 20260905140400 | 88 | 93 | 7.0 | 11.0 | 0.00 | 0.00 | 0.00 | 43 | 1021.9 |
| 20260905140303 | 88 | 85 | 6.0 | 10.0 | 0.00 | 0.00 | 0.00 | 44 | 1021.9 |
| 20260905140203 | 88 | 84 | 4.0 | 10.0 | 0.00 | 0.00 | 0.00 | 44 | 1021.9 |
| 20260905135614 | 87 | 108 | 6.0 | 10.0 | 0.00 | 0.00 | 0.00 | 45 | 1022.0 |
| 20260905135416 | 87 | 71 | 6.0 | 10.0 | 0.00 | 0.00 | 0.00 | 45 | 1022.1 |
| 20260905135240 | 87 | 127 | 4.0 | 10.0 | 0.00 | 0.00 | 0.00 | 44 | 1022.0 |
| 20260905135147 | 87 | 132 | 3.0 | 9.0 | 0.00 | 0.00 | 0.00 | 45 | 1022.1 |
| 20260905135040 | 87 | 132 | 4.0 | 9.0 | 0.00 | 0.00 | 0.00 | 45 | 1022.2 |
| 20260905134858 | 87 | 132 | 6.0 | 9.0 | 0.00 | 0.00 | 0.00 | 44 | 1022.1 |
| 20260905134704 | 87 | 119 | 3.0 | 11.0 | 0.00 | 0.00 | 0.00 | 45 | 1022.3 |
| 20260905134517 | 87 | 105 | 2.0 | 11.0 | 0.00 | 0.00 | 0.00 | 44 | 1022.3 |
| 20260905134335 | 87 | 144 | 6.0 | 11.0 | 0.00 | 0.00 | 0.00 | 45 | 1022.3 |
| 20260905134242 | 87 | 126 | 6.0 | 11.0 | 0.00 | 0.00 | 0.00 | 44 | 1022.3 |
| 20260905134128 | 87 | 130 | 4.0 | 11.0 | 0.00 | 0.00 | 0.00 | 45 | 1022.3 |
| 20260905133943 | 87 | 132 | 8.0 | 11.0 | 0.00 | 0.00 | 0.00 | 44 | 1022.3 |
| 20260905133813 | 87 | 57 | 4.0 | 11.0 | 0.00 | 0.00 | 0.00 | 45 | 1022.3 |
| 20260905133800 | 87 | 81 | 4.0 | 11.0 | 0.00 | 0.00 | 0.00 | 45 | 1022.3 |
| 20260905133604 | 87 | 50 | 2.0 | 11.0 | 0.00 | 0.00 | 0.00 | 46 | 1022.3 |
| 20260905133426 | 87 | 148 | 3.0 | 12.0 | 0.00 | 0.00 | 0.00 | 46 | 1022.3 |
| 20260905133342 | 87 | 133 | 3.0 | 12.0 | 0.00 | 0.00 | 0.00 | 46 | 1022.3 |
| 20260905133226 | 87 | 90 | 6.0 | 12.0 | 0.00 | 0.00 | 0.00 | 46 | 1022.3 |
| 20260905133041 | 86 | 107 | 3.0 | 12.0 | 0.00 | 0.00 | 0.00 | 46 | 1022.3 |
| 20260905132905 | 86 | 108 | 2.0 | 12.0 | 0.00 | 0.00 | 0.00 | 46 | 1022.3 |
| 20260905132847 | 86 | 116 | 2.0 | 12.0 | 0.00 | 0.00 | 0.00 | 46 | 1022.3 |
| 20260905132644 | 86 | 121 | 7.0 | 12.0 | 0.00 | 0.00 | 0.00 | 46 | 1022.4 |
| 20260905132507 | 86 | 110 | 6.0 | 11.0 | 0.00 | 0.00 | 0.00 | 46 | 1022.4 |
| 20260905132427 | 86 | 135 | 6.0 | 11.0 | 0.00 | 0.00 | 0.00 | 47 | 1022.4 |
| 20260905132301 | 86 | 101 | 5.0 | 11.0 | 0.00 | 0.00 | 0.00 | 47 | 1022.3 |
| 20260905131735 | 85 | 116 | 7.0 | 11.0 | 0.00 | 0.00 | 0.00 | 47 | 1022.4 |
| 20260905131719 | 85 | 107 | 7.0 | 11.0 | 0.00 | 0.00 | 0.00 | 47 | 1022.4 |
| 20260905131122 | 85 | 142 | 2.0 | 8.0 | 0.00 | 0.00 | 0.00 | 48 | 1022.4 |
| 20260905131044 | 85 | 62 | 1.0 | 7.0 | 0.00 | 0.00 | 0.00 | 48 | 1022.4 |
| 20260905130920 | 85 | 71 | 4.0 | 7.0 | 0.00 | 0.00 | 0.00 | 48 | 1022.4 |
| 20260905130741 | 85 | 130 | 5.0 | 10.0 | 0.00 | 0.00 | 0.00 | 48 | 1022.4 |
| 20260905130619 | 85 | 131 | 4.0 | 11.0 | 0.00 | 0.00 | 0.00 | 49 | 1022.5 |
| 20260905130557 | 85 | 121 | 3.0 | 11.0 | 0.00 | 0.00 | 0.00 | 49 | 1022.6 |
| 20260905130358 | 84 | 101 | 3.0 | 11.0 | 0.00 | 0.00 | 0.00 | 49 | 1022.5 |
| 20260905130214 | 84 | 55 | 5.0 | 11.0 | 0.00 | 0.00 | 0.00 | 48 | 1022.6 |
| 20260905130145 | 84 | 47 | 5.0 | 11.0 | 0.00 | 0.00 | 0.00 | 48 | 1022.6 |
| 20260905130015 | 84 | 68 | 8.0 | 11.0 | 0.00 | 0.00 | 0.00 | 49 | 1022.6 |
| 20260905125503 | 84 | 53 | 8.0 | 11.0 | 0.00 | 0.00 | 0.00 | 49 | 1022.7 |
| 20260905125423 | 84 | 57 | 8.0 | 11.0 | 0.00 | 0.00 | 0.00 | 49 | 1022.6 |
| 20260905125243 | 84 | 48 | 6.0 | 11.0 | 0.00 | 0.00 | 0.00 | 49 | 1022.5 |
| 20260905125115 | 84 | 85 | 7.0 | 11.0 | 0.00 | 0.00 | 0.00 | 49 | 1022.6 |
| 20260905125040 | 84 | 57 | 7.0 | 11.0 | 0.00 | 0.00 | 0.00 | 49 | 1022.6 |
| 20260905124531 | 84 | 81 | 7.0 | 11.0 | 0.00 | 0.00 | 0.00 | 48 | 1022.6 |
| 20260905124414 | 84 | 82 | 6.0 | 11.0 | 0.00 | 0.00 | 0.00 | 49 | 1022.7 |
| 20260905124334 | 84 | 117 | 5.0 | 10.0 | 0.00 | 0.00 | 0.00 | 49 | 1022.7 |
| 20260905123811 | 83 | 84 | 6.0 | 10.0 | 0.00 | 0.00 | 0.00 | 49 | 1022.7 |
| 20260905123736 | 83 | 99 | 6.0 | 10.0 | 0.00 | 0.00 | 0.00 | 49 | 1022.7 |
| 20260905123608 | 83 | 104 | 7.0 | 10.0 | 0.00 | 0.00 | 0.00 | 49 | 1022.7 |
| 20260905123056 | 83 | 55 | 6.0 | 10.0 | 0.00 | 0.00 | 0.00 | 49 | 1022.8 |
| 20260905123018 | 83 | 77 | 4.0 | 10.0 | 0.00 | 0.00 | 0.00 | 49 | 1022.7 |
| 20260905122840 | 83 | 97 | 5.0 | 10.0 | 0.00 | 0.00 | 0.00 | 49 | 1022.8 |
| 20260905122655 | 83 | 96 | 8.0 | 11.0 | 0.00 | 0.00 | 0.00 | 48 | 1022.9 |
| 20260905122626 | 83 | 49 | 8.0 | 11.0 | 0.00 | 0.00 | 0.00 | 49 | 1022.8 |
| 20260905122503 | 83 | 76 | 5.0 | 11.0 | 0.00 | 0.00 | 0.00 | 49 | 1022.9 |
| 20260905122332 | 83 | 53 | 4.0 | 11.0 | 0.00 | 0.00 | 0.00 | 49 | 1022.9 |
| 20260905122207 | 83 | 84 | 4.0 | 11.0 | 0.00 | 0.00 | 0.00 | 50 | 1022.9 |
| 20260905122140 | 83 | 111 | 5.0 | 11.0 | 0.00 | 0.00 | 0.00 | 49 | 1022.9 |
| 20260905121949 | 83 | 96 | 8.0 | 11.0 | 0.00 | 0.00 | 0.00 | 49 | 1022.9 |
| 20260905121816 | 83 | 67 | 4.0 | 10.0 | 0.00 | 0.00 | 0.00 | 52 | 1022.9 |
| 20260905121734 | 83 | 77 | 4.0 | 12.0 | 0.00 | 0.00 | 0.00 | 52 | 1022.9 |
| 20260905121213 | 82 | 90 | 4.0 | 12.0 | 0.00 | 0.00 | 0.00 | 52 | 1022.8 |
| 20260905121101 | 82 | 121 | 4.0 | 12.0 | 0.00 | 0.00 | 0.00 | 51 | 1022.9 |
| 20260905121019 | 82 | 80 | 5.0 | 12.0 | 0.00 | 0.00 | 0.00 | 51 | 1022.8 |
| 20260905120839 | 82 | 117 | 7.0 | 12.0 | 0.00 | 0.00 | 0.00 | 51 | 1022.9 |
| 20260905120704 | 82 | 75 | 7.0 | 12.0 | 0.00 | 0.00 | 0.00 | 52 | 1022.9 |
| 20260905120622 | 82 | 85 | 7.0 | 12.0 | 0.00 | 0.00 | 0.00 | 53 | 1022.9 |